                ,  0.290,  0.386,  0.483,  0.580,  0.676,  0.773,  0.869,  0.966,  1.063,  1.159,  1.256,  1.352,  1.449,  1.545,  1.642,  1.739,  1.835,  1.932,  2.028,  2.125,  2.222,  2.318,  2.415,  2.511,  2.608,  2.705,  2.801,  2.898,  2.994,  3.091,  3.188,  3.284,  3.381,  3.477,  3.574,  3.671,  3.767,  3.864,  3.960,  4.057,  4.153,  4.250,  4.347,  4.443,  4.540,  4.636,  4.733,  4.830,  4.926,  5.023,  5.119,  5.216,  5.313,  5.409,  5.506,  5.602,  5.699,  5.796
2000/10/12 00:00,  999.0,  999.0,  999.0,  999.0,  999.0,  -19.8,  -19.7,  999.0,  -19.8,  -19.7,  999.0,  999.0,  999.0,  999.0,  999.0,  999.0,  999.0,  999.0,  999.0,  999.0,  999.0,  999.0,  999.0,  999.0,  999.0,  999.0,  999.0,  999.0,  999.0,  999.0,  999.0,  999.0,  999.0,  999.0,  999.0,  999.0,  999.0,  999.0,  999.0,  999.0,  999.0,  999.0,  999.0,  999.0,  999.0,  999.0,  999.0,  999.0,  999.0,  999.0,  999.0,  999.0,  999.0,  999.0,  999.0,  999.0,  999.0,  999.0
2000/10/12 00:10,   -0.7,   -0.8,  999.0,  999.0,   -1.3,  999.0,  999.0,   -1.3,   -0.9,  999.0,   -0.9,  999.0,   -0.8,  999.0,   -0.4,  999.0,  999.0,  999.0,  999.0,  999.0,  999.0,  999.0,  999.0,  999.0,  999.0,  999.0,  999.0,  999.0,  999.0,  999.0,  999.0,  999.0,  999.0,  999.0,  999.0,  999.0,  999.0,  999.0,   42.9,   42.3,  999.0,  999.0,   41.3,  999.0,   41.5,   41.6,  999.0,  999.0,  999.0,  999.0,  999.0,   41.2,  999.0,   40.9,   40.7,  999.0,  999.0,   41.5
2000/10/12 00:20,   -0.8,  999.0,   -0.9,   -0.5,   -0.2,   -1.0,   -0.6,   -0.5,    0.6,   -0.9,  999.0,   42.4,  999.0,  999.0,   41.9,   42.2,   42.2,  999.0,  999.0,  999.0,   42.4,  999.0,   42.4,  999.0,  999.0,   42.2,  999.0,  999.0,  999.0,  999.0,  999.0,  999.0,  999.0,   -0.8,   -0.6,  999.0,   -1.0,  999.0,   42.3,   -0.7,  999.0,   42.2,   41.8,   42.2,   30.6,   41.7,  999.0,   41.7,  999.0,   41.5,  999.0,   42.1,   42.0,   41.9,   42.2,  999.0,   42.3,   42.0
2000/10/12 00:30,   42.3,  999.0,  999.0,  999.0,  999.0,  999.0,  999.0,  999.0,  999.0,   42.2,   42.2,   42.8,   43.8,   42.3,   42.4,   42.0,  999.0,  999.0,  999.0,  999.0,  999.0,  999.0,  999.0,  999.0,  999.0,   42.0,  999.0,  999.0,   42.2,   42.3,   42.7,  999.0,  999.0,  999.0,  999.0,  999.0,  999.0,  999.0,   42.4,  999.0,   42.9,   43.2,   41.7,   42.2,   41.8,  999.0,   42.2,   42.2,  999.0,  999.0,  999.0,  999.0,  999.0,  999.0,  999.0,  999.0,  999.0,  999.0
2000/10/12 00:40,   41.8,   41.7,   42.1,  999.0,   42.5,  999.0,   41.8,   41.5,   41.6,   42.0,   41.9,   41.4,   42.0,   42.0,   41.3,   41.8,   41.7,   41.8,   42.4,   41.2,   41.3,   41.9,   41.8,   41.4,   41.2,   41.6,   42.3,   41.9,   41.8,  999.0,   41.9,   42.3,   41.5,  999.0,  999.0,   42.0,  999.0,   41.8,  999.0,   41.5,   41.6,   41.8,   41.3,   42.2,   41.8,   41.8,   41.7,   41.8,   41.4,   41.9,  999.0,   41.6,   41.8,   41.6,   41.9,   41.5,   41.7,   42.0
2000/10/12 00:50,  999.0,   41.7,  999.0,  999.0,   41.5,   42.8,   44.6,   41.6,   42.7,   41.4,   41.8,   42.1,  999.0,   42.2,   41.5,   42.9,   42.2,   42.0,   41.2,   41.7,   42.1,   41.7,   41.5,   41.6,   42.4,  999.0,   41.7,   42.2,   41.7,   41.6,   41.9,   41.2,   41.5,   41.8,   42.2,   41.7,   41.1,   41.2,   41.8,   41.2,   41.5,   41.5,   41.6,   40.8,   41.9,   41.8,   42.0,   42.2,   41.9,   41.7,  999.0,   41.4,   41.3,   42.2,   41.8,   41.5,   42.0,   41.4
2000/10/12 01:00,   41.9,  999.0,   41.6,  999.0,  999.0,   41.9,   41.6,   42.0,   41.5,   42.4,   42.0,   42.3,   41.7,   41.9,   42.1,   42.1,   41.7,   42.3,   42.0,   41.9,   42.2,   41.2,   42.2,   41.9,   42.0,   42.1,   42.3,   42.1,   42.1,   41.8,   41.9,   42.1,   41.9,   41.8,   41.6,   41.0,   41.3,   41.5,  999.0,   42.1,   41.9,   41.9,   42.3,   42.0,   42.0,   42.1,   41.6,   42.0,   41.5,   42.3,   41.6,   42.5,   42.2,   41.6,   42.0,   41.7,   42.2,   42.1
2000/10/12 01:10,   41.7,  999.0,  999.0,  999.0,   41.5,   41.7,   41.7,   41.9,   41.5,   41.9,  999.0,   41.8,   41.9,   41.9,   41.7,   41.8,   41.8,   41.2,   41.4,   41.6,   41.3,  999.0,   42.1,   42.1,   42.0,   42.1,   41.4,   42.0,   41.4,  999.0,  999.0,   41.4,   41.7,   41.8,   41.6,   41.5,   42.3,   41.8,   42.4,   42.0,   41.7,   41.9,   41.9,   41.7,   42.1,   42.1,   41.5,   41.8,  999.0,   42.2,   41.8,   41.7,   41.1,   41.4,   41.4,   42.2,   42.0,  999.0
2000/10/12 01:20,   41.6,  999.0,   42.3,   41.6,   42.1,   42.2,   41.7,   41.9,   41.6,   41.5,   41.4,   41.7,   41.9,   41.9,   42.1,   42.0,   42.3,   41.9,   41.6,   42.4,   41.9,   41.3,   41.8,   42.0,   41.6,   41.7,   41.6,   42.2,   41.5,   41.3,   41.6,   42.0,   41.6,   42.0,   41.6,   41.3,   41.8,   41.8,   42.1,   42.0,   41.8,   41.6,   42.0,   41.7,   41.8,   42.6,   41.5,   42.1,   42.6,   42.2,   42.1,   42.2,   41.9,   41.9,   41.5,   41.7,  999.0,   42.0
2000/10/12 01:30,   41.8,  999.0,   41.1,   41.1,   40.8,   41.3,   41.3,   41.5,   41.4,   42.0,   41.9,   42.0,   42.1,   42.2,   42.0,   42.2,   42.0,   41.7,   41.8,   41.9,  999.0,   42.0,   41.5,   41.9,   41.6,   41.6,   41.5,   41.6,   41.3,   41.8,   41.2,   41.3,   42.0,   41.7,   42.3,   41.8,   41.9,   41.9,   42.3,   41.8,   42.9,   41.8,  999.0,   42.2,   41.9,   41.9,   41.5,   41.7,   42.0,   41.6,   41.3,   41.1,   41.5,   41.7,   42.1,   41.8,   41.7,   41.7
2000/10/12 01:40,   41.7,   41.1,  999.0,   42.0,   41.9,   41.8,   42.2,   41.6,   41.9,   42.2,   42.0,   41.5,   42.9,   41.7,   41.9,   42.4,   41.9,   42.4,   41.7,   41.2,   41.7,   41.2,   41.6,   40.8,   41.7,   41.9,   41.5,   41.6,   41.6,   41.8,   42.0,   41.9,   41.9,   42.0,   42.0,   41.8,   42.0,   43.1,   42.2,   41.7,   41.9,   41.8,   41.6,   42.5,   41.5,   41.7,   42.0,   42.3,   41.4,   41.5,   41.2,   41.7,   42.1,   42.0,   42.2,   42.2,   41.6,   41.4
2000/10/12 01:50,   41.9,  999.0,   41.7,   41.5,   41.5,   41.7,   41.6,   41.6,  999.0,   42.0,  999.0,   41.6,   42.1,  999.0,   41.6,   42.1,   41.7,   41.1,   42.1,   42.5,   42.4,  999.0,   41.9,   42.6,   42.0,   42.2,   41.9,   41.9,  999.0,   41.0,   41.9,   42.5,  999.0,   42.0,   42.0,   41.6,   41.5,   41.9,   41.7,   41.9,   41.5,   40.9,  999.0,   41.8,   41.5,   41.9,  999.0,   41.9,   41.8,   41.3,   41.5,   41.8,   41.4,   41.6,  999.0,   41.9,   41.2,   41.3
2000/10/12 02:00,  999.0,   -0.9,   -0.7,  999.0,  999.0,  999.0,  999.0,  999.0,   -0.6,   -1.1,   -1.1,  999.0,   -0.5,   -0.6,   -1.0,   -1.0,  999.0,  999.0,   -0.6,   -0.9,   -0.4,   -0.9,  999.0,  999.0,   -0.1,   -0.7,  999.0,  999.0,  999.0,   -0.5,    0.1,   -0.6,   -0.6,  999.0,  999.0,  999.0,  999.0,  999.0,  999.0,   -0.2,   -0.4,   -1.3,   -1.0,   -1.4,   -0.6,  999.0,   -0.8,  999.0,   -0.8,  999.0,  999.0,   -0.4,   -0.9,  999.0,   -0.9,   -1.2,  999.0,   -1.6
2000/10/12 02:10,   -0.8,   -1.3,   -0.3,  999.0,  999.0,   -0.7,  999.0,  999.0,   -0.5,   -1.0,  999.0,   -1.0,   -0.9,  999.0,   -0.6,   -0.7,   -0.7,   -0.4,  999.0,   -0.7,   -0.9,  999.0,   -1.1,   -0.6,   -0.4,   -1.2,   -1.4,   -0.8,  999.0,  999.0,  999.0,    0.2,   -0.7,  999.0,   -0.9,  999.0,  999.0,  999.0,   -0.5,  999.0,   -0.3,   -0.7,   -0.6,  999.0,   -0.8,   -0.6,  999.0,   -0.3,   -0.8,  999.0,  999.0,   -0.6,   -0.8,   -0.5,   -0.6,  999.0,  999.0,   -0.3
2000/10/12 02:20,   -0.8,   -0.3,   -0.5,   -1.3,  999.0,  999.0,   -1.1,   -0.5,   -0.4,   -0.9,  999.0,   -1.0,  999.0,   -0.6,   -0.2,   -0.9,   -0.9,   -0.6,   -0.5,   -0.6,   -0.5,   -1.1,   -0.9,   -0.5,  999.0,   -0.8,   -0.7,   -1.0,   -1.0,   -1.2,   -0.9,   -1.1,   -0.7,  999.0,   -1.0,   -0.5,   -0.5,  999.0,   -0.8,   -0.7,   -1.0,   -1.0,   -0.5,   -1.5,   -1.1,   -0.8,   -1.4,   -0.8,   -0.7,  999.0,  999.0,   -0.6,   -1.0,   -0.9,   -0.5,   -0.2,  999.0,   -0.8
2000/10/12 02:30,    0.8,  999.0,  999.0,  999.0,  999.0,  999.0,  999.0,  999.0,    0.1,  999.0,  999.0,   -0.1,   -0.1,  999.0,  999.0,  999.0,    1.4,  999.0,    1.3,  999.0,    0.8,  999.0,  999.0,    1.0,  999.0,    0.5,    0.3,  999.0,  999.0,    0.3,  999.0,  999.0,  999.0,  999.0,  999.0,  999.0,  999.0,  999.0,  999.0,    0.5,  999.0,    1.1,    0.7,    0.7,  999.0,    1.1,  999.0,  999.0,  999.0,  999.0,  999.0,  999.0,  999.0,  999.0,  999.0,  999.0,  999.0,  999.0
2000/10/12 02:40,    0.6,    1.0,  999.0,  999.0,  999.0,  999.0,  999.0,  999.0,  999.0,  999.0,  999.0,  999.0,  999.0,  999.0,  999.0,  999.0,  999.0,  999.0,  999.0,  999.0,    0.8,  999.0,  999.0,    1.2,  999.0,    1.1,  999.0,  999.0,  999.0,    0.8,    1.2,    0.8,  999.0,  999.0,  999.0,  999.0,  999.0,    0.6,  999.0,  999.0,  999.0,  999.0,  999.0,    1.0,  999.0,  999.0,  999.0,  999.0,  999.0,  999.0,  999.0,    0.8,  999.0,  999.0,  999.0,    0.7,  999.0,    0.9
2000/10/12 02:50,  -41.9,  -41.6,  999.0,  999.0,  999.0,  -41.6,  999.0,  999.0,  999.0,  -41.5,  999.0,  -41.9,  999.0,  999.0,  999.0,  999.0,  999.0,  999.0,  999.0,  999.0,  999.0,  999.0,  999.0,  999.0,  999.0,  999.0,  999.0,  999.0,  999.0,  999.0,  999.0,  999.0,  999.0,  999.0,  999.0,  999.0,  999.0,  999.0,  999.0,  999.0,  999.0,  999.0,    0.5,  999.0,  999.0,  999.0,  999.0,  999.0,  999.0,  999.0,  999.0,  999.0,  999.0,    1.1,  999.0,    0.5,    0.9,    0.4
2000/10/12 03:00,  -10.8,  -41.9,  -21.0,  -41.9,  999.0,   -0.8,   -0.9,  999.0,   -0.3,  -42.5,   -0.1,    0.8,   -0.1,    0.6,   -0.3,  999.0,  999.0,  999.0,  999.0,    1.0,  999.0,  999.0,  999.0,    0.9,  999.0,    0.9,    1.2,    1.2,  999.0,  999.0,  999.0,  999.0,  999.0,  999.0,  999.0,  999.0,  999.0,    1.2,  999.0,  999.0,    0.6,    0.8,  999.0,    0.6,    0.2,    0.5,  999.0,    1.2,    0.9,  999.0,    1.4,  999.0,   -0.2,  999.0,    0.2,  999.0,    0.5,  999.0
2000/10/12 03:10,   41.8,   41.8,   41.9,  999.0,  999.0,  999.0,  999.0,  999.0,   41.7,   41.9,   41.9,   43.1,  999.0,   41.4,   41.6,   41.8,  999.0,  999.0,  999.0,  999.0,   41.9,  999.0,  999.0,   41.9,  999.0,  999.0,  999.0,   41.9,   41.6,   42.3,   41.7,  999.0,   42.8,  999.0,  999.0,  999.0,   42.1,   42.5,  999.0,   42.1,   41.9,  999.0,  999.0,  999.0,  999.0,   42.3,   42.2,  999.0,   41.8,   42.1,   41.9,  999.0,  999.0,   41.6,   42.1,   41.5,   42.4,   41.0
2000/10/12 03:20,   42.0,   42.3,  999.0,   40.7,  999.0,  999.0,  999.0,  999.0,  999.0,   42.2,   41.8,   41.9,  999.0,   41.9,   41.8,   42.1,   42.1,  999.0,   42.4,   41.7,   41.6,  999.0,   41.5,   42.2,  999.0,   41.8,   42.3,   41.8,   42.5,   42.3,  999.0,  999.0,   42.1,  999.0,  999.0,  999.0,   41.3,   41.8,   41.8,   41.9,   42.3,   41.3,   42.1,   41.8,   41.4,   41.9,   41.6,   41.1,   42.7,   41.7,   42.0,   41.3,   42.0,   41.3,   42.1,   41.6,   41.5,   42.0
2000/10/12 03:30,   21.2,   21.2,   21.1,   42.3,  -41.8,  999.0,  999.0,   42.7,   21.1,   42.1,    0.6,   42.2,   21.4,   41.6,  -18.1,  -38.1,    5.2,   42.1,   42.7,  -11.8,   42.5,   29.8,   29.3,   42.2,  999.0,   28.1,   21.3,   28.4,   21.7,   28.2,   11.0,   21.1,   42.3,   42.3,   28.0,  999.0,   41.6,   41.9,   41.6,   40.8,   42.8,   42.0,   43.2,   41.6,   42.2,   42.1,   41.7,   42.1,   42.6,   43.0,   42.2,   41.6,  999.0,   43.1,   41.9,   42.6,   41.8,  999.0
2000/10/12 03:40,   35.1,   29.7,   31.0,   28.8,  999.0,  999.0,   42.0,   42.7,   42.1,   30.3,   24.4,   41.3,   42.7,   38.7,   42.4,    9.2,   42.2,   42.5,  999.0,   31.6,   41.8,   42.2,   42.1,   31.4,   42.9,   42.2,   42.6,   42.4,   41.7,   42.0,  999.0,   42.5,   42.1,   41.9,  999.0,   42.5,   42.0,   41.6,   42.0,   42.6,   32.1,   36.3,   42.2,   42.0,  999.0,   29.6,   37.5,   22.3,   42.1,   26.1,  999.0,   42.0,   42.7,   38.6,   21.7,  999.0,   32.0,   42.0
2000/10/12 03:50,    0.7,  999.0,  999.0,  999.0,  999.0,  999.0,    0.4,  999.0,  999.0,    0.8,  999.0,  999.0,  999.0,  -20.5,    0.4,  999.0,  -20.1,    1.5,    1.0,  -41.1,    0.9,  -20.3,    0.5,    0.3,  -20.6,  -42.3,  999.0,  -20.6,    0.6,    0.5,    0.1,    0.7,    1.0,    0.8,    0.8,    0.5,  999.0,    0.1,    0.6,    0.4,    0.9,    0.5,    0.8,  999.0,  -20.6,  -42.1,    0.4,  999.0,  999.0,  999.0,    0.5,    1.1,  999.0,  999.0,    0.5,    0.7,    1.0,  999.0
2000/10/12 04:00,  -20.4,  -41.5,  -41.0,  999.0,  999.0,  999.0,  999.0,  999.0,  999.0,  999.0,  -20.0,    1.4,  999.0,  999.0,    1.0,  999.0,  999.0,  999.0,  999.0,  999.0,  999.0,  999.0,  999.0,  999.0,  999.0,  999.0,  999.0,    1.4,  999.0,  999.0,  -41.6,  999.0,  999.0,    0.5,  999.0,  999.0,  999.0,  999.0,  999.0,  999.0,  999.0,  999.0,  999.0,  999.0,  999.0,  999.0,  999.0,  999.0,  999.0,  999.0,  999.0,  999.0,  999.0,  999.0,  -15.6,  999.0,  999.0,  999.0
2000/10/12 04:10,  -20.5,  -20.2,  999.0,    1.3,  999.0,  999.0,    0.5,   -0.0,  -21.0,  999.0,  999.0,    0.4,    0.3,    1.1,    0.9,    1.3,  -20.1,    1.1,    0.4,  -20.6,    0.5,    1.1,    0.6,  999.0,    0.9,  999.0,  -42.0,  999.0,  -20.6,    0.9,  999.0,  -20.6,  999.0,    1.1,  999.0,    0.7,    0.9,  999.0,  999.0,  999.0,    0.8,  999.0,  999.0,    0.9,  999.0,  999.0,    0.8,  999.0,    0.9,    0.4,  999.0,    0.3,    0.8,  999.0,    1.4,  999.0,    1.5,    2.4
2000/10/12 04:20,  -41.9,  -41.9,  -41.7,  999.0,  999.0,  999.0,  999.0,  999.0,  -41.9,  -41.8,  -42.1,  -41.4,  999.0,  -42.3,  -41.7,  999.0,  -41.9,  999.0,  -41.5,  -41.7,  999.0,  -42.4,  -42.1,  -41.7,  -41.9,  -41.7,  -41.9,  999.0,  -42.2,  -42.3,  -42.8,  -42.5,  999.0,  999.0,  999.0,  999.0,  999.0,  999.0,  999.0,  -41.9,  999.0,  -41.5,  -42.6,  -42.3,  -42.2,  -41.0,  -42.2,  -42.2,  -42.2,  999.0,  999.0,  -42.1,  -41.9,  999.0,  -42.5,  -42.3,  999.0,  -41.8
2000/10/12 04:30,  -41.8,  -41.3,  -41.3,  999.0,  -41.7,  -41.6,  999.0,  999.0,  -40.8,  -42.1,  -41.8,  -41.7,  -42.3,  -42.5,  -42.7,  -42.0,  -41.4,  999.0,  -41.7,  -41.3,  -42.0,  -41.4,  -41.7,  -42.0,  -40.9,  -41.4,  -41.3,  -41.7,  -40.8,  -41.5,  -41.8,  -41.5,  -41.9,  -41.9,  -41.8,  -41.6,  999.0,  -42.2,  -41.6,  -42.0,  999.0,  -42.3,  -42.0,  -42.4,  -42.4,  -42.0,  -41.6,  -41.7,  -41.5,  999.0,  999.0,  -41.4,  -42.6,  -41.5,  -42.2,  -41.4,  999.0,  999.0
2000/10/12 04:40,  -41.5,  -41.5,  -41.1,  -41.9,  -40.6,  -41.1,  999.0,  -40.9,  -41.8,  -42.0,  -41.6,  -41.3,  -40.9,  -41.2,  -41.7,  999.0,  -41.1,  999.0,  -41.3,  -41.2,  -41.4,  -41.4,  999.0,  -41.9,  -41.3,  -41.4,  -41.4,  -41.9,  -41.5,  -41.5,  -41.4,  -40.8,  -41.5,  -41.5,  -41.9,  -41.4,  999.0,  -41.9,  999.0,  -41.0,  -41.6,  -41.2,  -41.1,  -41.1,  -41.3,  -41.5,  -41.4,  -41.3,  -41.5,  999.0,  -41.2,  -41.7,  -41.4,  -41.2,  -40.9,  -41.8,  999.0,  -41.5
2000/10/12 04:50,  -42.4,  999.0,  999.0,  -42.7,  999.0,  999.0,  -41.8,  -42.3,  -42.2,  -41.8,  999.0,  -42.5,  -41.6,  -42.2,  -42.1,  -42.4,  -42.1,  999.0,  999.0,  999.0,  -42.7,  -42.6,  -42.4,  999.0,  -41.8,  -42.0,  999.0,  999.0,  -42.2,  999.0,  999.0,  -42.7,  -42.7,  999.0,  -41.9,  -42.4,  999.0,  -41.1,  -42.3,  -42.2,  -42.7,  -42.9,  999.0,  999.0,  999.0,  -41.4,  -41.9,  -42.6,  -42.3,  -42.3,  -42.4,  999.0,  999.0,  999.0,  999.0,  -42.9,  -42.4,  999.0
2000/10/12 05:00,  999.0,  999.0,  999.0,  999.0,  999.0,  999.0,  999.0,  999.0,  999.0,  999.0,  999.0,  999.0,  999.0,  999.0,  999.0,  999.0,  999.0,  999.0,  999.0,  999.0,  999.0,  999.0,  999.0,  999.0,  999.0,  999.0,  999.0,  999.0,  999.0,  999.0,  999.0,  999.0,  999.0,  999.0,  999.0,  999.0,  999.0,  999.0,  999.0,  999.0,  999.0,  999.0,  999.0,  999.0,  999.0,  999.0,  999.0,  999.0,  999.0,  999.0,  999.0,  999.0,  999.0,  999.0,  999.0,  999.0,  999.0,  999.0
2000/10/12 05:10,  -41.8,  -42.4,  999.0,  999.0,  999.0,  999.0,  -42.0,  999.0,  -29.8,  -42.2,  999.0,  999.0,  999.0,  999.0,  999.0,  999.0,  999.0,  -21.4,  999.0,  999.0,  999.0,  999.0,  999.0,  -41.6,  999.0,  999.0,  999.0,  -41.8,  -41.5,  999.0,  999.0,  999.0,  999.0,  999.0,  999.0,  999.0,  999.0,  999.0,  999.0,  -41.9,  999.0,  -41.9,  999.0,  999.0,  999.0,  999.0,  -41.7,  -41.7,  999.0,  -41.9,  -41.9,  999.0,  999.0,  999.0,  999.0,  -42.1,  999.0,  999.0
2000/10/12 05:20,   -0.8,   -1.0,   -1.4,  999.0,   -1.2,   -1.3,   -0.1,  999.0,   -1.1,   -1.4,   -0.9,   -0.8,   -0.4,   -0.2,   -1.0,  999.0,   -0.8,   -1.1,   -1.0,   -0.8,  999.0,   -0.8,   -0.3,   -0.4,  999.0,   -0.9,   -1.1,   -1.0,   -0.5,   -1.1,   -0.6,   -1.2,   -0.5,   -0.6,   -0.5,    0.4,   -0.8,   -1.2,   -0.5,  999.0,  999.0,  999.0,   -0.4,   -1.2,   -1.0,  999.0,   -0.9,   -0.6,  999.0,  999.0,   -0.6,  999.0,   -0.5,   -0.4,    0.3,   -0.6,   -1.3,   -0.7
2000/10/12 05:30,   -0.8,  999.0,   -0.6,   -0.6,   -1.1,   -0.8,   -0.7,   -0.4,   -1.2,   -0.7,   -0.9,   -1.0,   -0.5,  999.0,   -0.5,   -0.1,   -0.7,   -0.8,   -0.7,   -0.9,   -0.5,   -1.4,   -0.6,   -1.0,   -1.8,   -0.6,   -0.8,   -0.4,   -0.8,  999.0,   -0.8,   -0.2,   -0.5,   -1.4,   -1.1,   -0.9,   -1.2,   -1.3,   -1.5,   -0.8,   -1.1,   -1.1,   -1.2,   -0.1,  999.0,   -0.6,   -1.1,   -0.9,   -1.0,   -0.9,   -0.5,   -1.3,   -0.7,   -0.8,   -0.9,   -0.9,   -1.3,   -1.3
2000/10/12 05:40,  999.0,  999.0,  999.0,  999.0,  999.0,  999.0,  999.0,  999.0,  999.0,  999.0,  999.0,  999.0,  999.0,  999.0,  999.0,  999.0,  999.0,  999.0,  999.0,  999.0,  999.0,  999.0,  999.0,  999.0,  999.0,  999.0,  999.0,  999.0,  999.0,  999.0,  999.0,  999.0,  999.0,  999.0,  999.0,  999.0,  999.0,  999.0,  999.0,  999.0,  999.0,  999.0,  999.0,  999.0,  999.0,  999.0,  999.0,  999.0,  999.0,  999.0,  999.0,  999.0,  999.0,  999.0,  999.0,  999.0,  999.0,  999.0
2000/10/12 05:50,    0.7,    1.0,    1.3,  999.0,  999.0,  999.0,  999.0,  999.0,    0.1,    0.4,    0.2,  999.0,    0.9,    1.2,  999.0,  999.0,    1.0,  999.0,    1.2,    1.0,    0.6,    0.6,    1.2,  999.0,    1.3,    1.2,  999.0,  999.0,    1.1,    1.7,    0.5,    1.0,  999.0,  999.0,  999.0,  999.0,  999.0,  999.0,    1.0,    0.9,  999.0,    0.7,    0.5,    0.5,    1.0,    0.0,  999.0,  999.0,    0.6,  999.0,  999.0,    1.3,  999.0,  999.0,  999.0,    0.9,  999.0,  999.0
2000/10/12 06:00,    0.8,  999.0,    0.8,    0.7,  999.0,  999.0,  999.0,  999.0,    0.5,  999.0,  999.0,    0.6,    0.5,    0.5,    1.3,    1.2,    0.7,  999.0,  999.0,    0.1,    0.6,    0.7,    0.7,    0.6,    1.1,    0.6,    1.0,    1.0,    0.9,    0.6,    0.6,    0.3,    0.6,  999.0,  999.0,    0.5,  999.0,    1.1,    1.4,   -0.4,    0.7,    0.7,    0.8,  999.0,    0.9,    0.4,    0.4,  999.0,    0.1,  999.0,  999.0,    0.7,    1.0,    1.1,    1.1,    1.3,  999.0,  999.0
2000/10/12 06:10,    0.8,    1.0,    0.8,    0.8,  999.0,    0.8,  999.0,    1.1,    0.9,    0.3,  999.0,  999.0,    1.1,    0.5,    0.2,    0.9,    0.4,  999.0,  999.0,  999.0,    0.1,    0.7,    0.6,    0.6,    1.3,    0.2,    0.7,  999.0,    1.2,    0.6,    1.0,  999.0,    0.8,    1.3,  999.0,  999.0,  999.0,    0.6,    1.3,  999.0,  999.0,    0.6,    0.9,    0.9,    0.5,    0.6,    0.6,    0.7,    0.5,  999.0,  999.0,    0.8,    1.2,    1.2,  999.0,  999.0,    0.8,  999.0
2000/10/12 06:20,    0.7,    1.0,    0.7,    0.7,    1.0,    0.5,  999.0,    0.4,    0.4,  999.0,    1.2,    0.7,    0.6,  999.0,  999.0,    1.4,    1.2,  999.0,  999.0,    1.0,    0.4,    0.6,  999.0,    0.8,    0.9,    0.3,    0.1,  999.0,  999.0,    0.3,    0.6,    1.1,  999.0,  999.0,    0.8,    1.0,    0.0,  999.0,    0.3,    0.7,    0.9,    0.4,    0.0,  999.0,    0.4,    0.6,    0.4,    0.6,  999.0,  999.0,  999.0,    0.8,  999.0,    0.7,    0.5,  999.0,  999.0,  999.0
2000/10/12 06:30,  999.0,  999.0,  999.0,  999.0,  999.0,  999.0,  999.0,  999.0,  999.0,  999.0,  999.0,  999.0,  999.0,  999.0,  999.0,  999.0,  999.0,  999.0,  999.0,  999.0,  999.0,  999.0,  999.0,  999.0,  999.0,  999.0,  999.0,  999.0,  999.0,  999.0,  999.0,  999.0,  999.0,  999.0,  999.0,  999.0,  999.0,  999.0,  999.0,  999.0,  999.0,  999.0,  999.0,  999.0,  999.0,  999.0,  999.0,  999.0,  999.0,  999.0,  999.0,  999.0,  999.0,  999.0,  999.0,  999.0,  999.0,  999.0
2000/10/12 06:40,  -41.9,  -41.9,  -41.7,  999.0,  999.0,  999.0,  -41.7,  999.0,  -41.5,  999.0,  -42.1,  -41.9,  -41.6,  -41.4,  -41.9,  -42.0,  -41.9,  999.0,  999.0,  999.0,  -42.4,  -42.0,  -41.6,  -42.3,  -41.7,  -42.1,  -42.0,  -41.6,  -41.9,  -42.2,  999.0,  -41.9,  999.0,  999.0,  999.0,  999.0,  999.0,  999.0,  999.0,  -42.0,  999.0,  -42.4,  999.0,  -42.6,  999.0,  999.0,  999.0,  999.0,  -42.2,  999.0,  -41.4,  999.0,  999.0,  999.0,  999.0,  999.0,  999.0,  -41.8
2000/10/12 06:50,  -41.8,  -41.7,  -41.4,  999.0,  999.0,  -42.0,  999.0,  -41.5,  -41.8,  -42.5,  999.0,  -41.6,  -41.6,  -41.5,  -41.7,  -41.5,  -41.5,  -41.7,  -41.2,  999.0,  -41.2,  -41.6,  -42.2,  -41.4,  -42.0,  999.0,  -42.3,  -42.1,  -41.7,  -41.8,  -41.6,  -41.7,  999.0,  999.0,  999.0,  999.0,  999.0,  999.0,  -42.0,  -42.4,  -41.8,  -41.8,  -41.6,  -41.3,  -41.8,  -41.7,  999.0,  999.0,  -41.8,  -41.4,  -42.3,  999.0,  999.0,  -41.9,  999.0,  -42.0,  999.0,  -41.8
2000/10/12 07:00,  999.0,  999.0,  999.0,  999.0,  999.0,  -41.9,  999.0,  -40.9,  -41.0,  -41.1,  -41.6,  -42.0,  -42.0,  -42.1,  -41.8,  999.0,  999.0,  999.0,  -41.8,  999.0,  999.0,  999.0,  -40.8,  -41.8,  999.0,  -41.5,  -41.8,  -42.9,  999.0,  -41.5,  -41.9,  -41.8,  999.0,  999.0,  999.0,  999.0,  999.0,  -41.5,  999.0,  -41.0,  999.0,  999.0,  -41.1,  999.0,  -41.2,  -41.1,  999.0,  999.0,  999.0,  -40.8,  -42.3,  999.0,  999.0,  999.0,  999.0,  999.0,  999.0,  -42.2
2000/10/12 07:10,  -41.6,  -41.6,  999.0,  999.0,  -41.3,  -40.8,  -41.1,  -41.3,  -41.8,  -41.6,  -41.6,  -42.1,  -41.4,  -40.9,  -41.8,  999.0,  -41.5,  -41.2,  -41.6,  -42.3,  -41.3,  -41.2,  999.0,  -40.9,  -41.2,  -41.8,  -41.5,  -41.2,  -41.8,  -41.1,  999.0,  -41.4,  -41.5,  -41.2,  -41.0,  -42.0,  -41.9,  -41.8,  -41.6,  -41.7,  999.0,  -41.4,  -41.4,  -41.0,  -41.5,  -40.8,  -41.3,  -41.8,  -42.0,  -41.6,  -41.3,  -41.2,  999.0,  -41.7,  -41.7,  -41.4,  999.0,  -41.7
2000/10/12 07:20,  -41.9,  999.0,  -42.3,  -41.8,  -42.1,  -41.7,  -41.3,  -41.7,  -41.5,  -41.7,  -41.9,  -41.8,  -41.5,  -41.8,  -41.8,  -41.9,  999.0,  -42.1,  999.0,  -42.0,  -41.9,  -41.7,  -41.4,  -41.5,  -41.4,  999.0,  999.0,  -42.3,  -42.1,  999.0,  -41.7,  -42.2,  -41.7,  -41.7,  -41.6,  999.0,  -41.6,  -41.6,  -42.1,  -41.8,  -41.2,  -41.7,  -41.7,  -41.4,  -42.1,  -41.1,  -41.4,  -42.7,  -41.8,  -41.5,  999.0,  -41.9,  -41.9,  -42.3,  -41.8,  -41.8,  -42.4,  -41.6
2000/10/12 07:30,  -41.8,  -41.2,  -41.8,  -42.2,  -42.2,  -41.6,  -41.9,  999.0,  -41.3,  -41.3,  999.0,  999.0,  -42.1,  999.0,  -41.4,  -41.4,  -41.5,  -41.6,  -41.5,  -41.8,  -41.6,  -41.6,  999.0,  -42.0,  999.0,  -42.0,  -41.3,  -42.1,  -41.8,  -41.2,  -42.4,  -40.6,  -42.8,  -42.2,  999.0,  -42.1,  -41.9,  -41.6,  -41.3,  -42.0,  -41.3,  999.0,  999.0,  -41.5,  -41.4,  -42.0,  -41.4,  -41.7,  -41.6,  999.0,  999.0,  -41.2,  -41.8,  -41.6,  -41.7,  -41.4,  999.0,  -41.6
2000/10/12 07:40,  -41.7,  -41.6,  -41.6,  -41.0,  -41.1,  -42.0,  -41.8,  -40.8,  -42.3,  -41.9,  -41.2,  -41.6,  -41.6,  999.0,  999.0,  999.0,  -42.5,  -41.9,  -42.1,  -41.6,  -41.9,  -41.8,  -41.6,  -41.3,  -41.9,  999.0,  999.0,  -41.6,  999.0,  999.0,  999.0,  999.0,  -41.6,  -42.0,  -42.3,  -41.0,  -41.6,  -41.3,  -40.9,  -41.2,  -41.1,  -41.7,  -41.7,  -41.8,  -41.5,  -42.0,  -41.6,  -41.7,  -42.2,  -42.0,  999.0,  -41.7,  999.0,  999.0,  999.0,  999.0,  -41.7,  -41.0
2000/10/12 07:50,  -41.8,  -41.7,  -41.8,  -42.5,  -41.8,  -41.5,  -41.5,  -41.8,  -41.0,  -42.6,  -42.1,  999.0,  -41.4,  -41.4,  -41.9,  -41.6,  -41.7,  -41.5,  -41.2,  -41.6,  -41.3,  -41.3,  -41.3,  -41.6,  -41.8,  -41.7,  -42.1,  999.0,  -42.2,  -41.9,  -41.7,  -41.7,  -41.7,  -41.9,  -41.3,  -42.8,  -41.4,  -41.6,  999.0,  -42.2,  -41.0,  -41.5,  -41.1,  -41.6,  -41.6,  -41.7,  -41.7,  -41.5,  -42.1,  -42.0,  -42.2,  999.0,  999.0,  -41.8,  -41.9,  -42.0,  -42.0,  -41.8
2000/10/12 08:00,  -41.7,  -42.0,  -41.9,  -41.4,  999.0,  -42.0,  -41.0,  -41.4,  -41.8,  -41.2,  -41.1,  999.0,  -42.2,  -41.2,  -40.7,  -41.3,  -41.7,  -41.1,  -41.5,  -40.8,  -41.0,  -41.9,  -40.8,  -41.8,  -41.8,  -41.2,  -41.3,  -41.2,  -42.1,  999.0,  -41.5,  -41.7,  -41.1,  -43.0,  -41.4,  999.0,  -41.7,  -41.5,  -41.4,  -41.8,  -41.3,  -41.8,  -41.7,  -41.7,  -41.1,  -41.1,  -41.6,  -41.8,  -41.6,  -41.1,  -41.2,  -41.9,  -42.0,  -41.5,  -42.2,  -41.1,  -41.3,  -42.1
2000/10/12 08:10,  -41.9,  -42.0,  -42.0,  -41.9,  -41.6,  -41.7,  -41.9,  -41.7,  -41.2,  -42.2,  999.0,  999.0,  -42.2,  -42.2,  -42.3,  -41.6,  -41.8,  -41.6,  -41.5,  -41.9,  -41.8,  -41.7,  -41.4,  -41.2,  -41.7,  -41.4,  -41.1,  -41.0,  -41.8,  -43.2,  -41.7,  999.0,  -40.2,  999.0,  -41.7,  -41.6,  -41.4,  -41.5,  -41.6,  -41.2,  -41.6,  -42.0,  -41.9,  -41.4,  999.0,  -42.3,  -41.5,  -41.8,  -41.6,  -42.0,  -41.6,  -41.9,  -41.6,  999.0,  999.0,  -41.6,  999.0,  -41.8
2000/10/12 08:20,  -41.9,  -41.5,  -41.7,  -41.5,  -42.0,  -41.4,  -41.5,  999.0,  -41.9,  -42.0,  -41.9,  -41.5,  -41.8,  -41.4,  -42.2,  -41.8,  -42.1,  -42.6,  -42.3,  -41.8,  -41.8,  -41.8,  -41.8,  -42.2,  999.0,  -42.0,  -41.6,  -41.9,  -41.8,  -41.4,  999.0,  -41.8,  -41.6,  -41.2,  -42.2,  -41.7,  -41.8,  -41.3,  -41.7,  -41.7,  -41.8,  -42.1,  -42.0,  -42.1,  999.0,  -41.3,  -41.9,  -42.4,  -42.1,  -41.9,  -41.8,  -41.4,  -42.4,  -41.8,  999.0,  -43.1,  -41.7,  -41.5
2000/10/12 08:30,  -41.8,  -42.1,  -41.6,  999.0,  -41.8,  -42.1,  -41.7,  -40.9,  -41.3,  -41.7,  -42.2,  -41.5,  -41.7,  -41.6,  -41.9,  -41.3,  -41.9,  -41.8,  -41.6,  999.0,  -41.7,  -41.1,  -42.7,  -42.0,  -41.6,  -42.2,  -42.1,  -42.0,  -41.3,  -41.9,  999.0,  -41.5,  -41.8,  -41.9,  -42.8,  -41.7,  -41.5,  -42.4,  -41.8,  -41.6,  -41.9,  999.0,  999.0,  -42.0,  999.0,  -41.8,  -42.2,  999.0,  -42.6,  -41.6,  -41.6,  -42.5,  -41.6,  -42.0,  -42.0,  999.0,  -41.8,  -42.1
2000/10/12 08:40,  -41.9,  -41.2,  -41.9,  -41.7,  -41.8,  -41.6,  -41.5,  -42.0,  -41.3,  -41.7,  -41.7,  -41.7,  -41.4,  -41.3,  -41.5,  999.0,  -41.6,  -41.8,  -41.7,  -41.9,  -41.6,  -41.4,  -41.0,  -41.7,  -42.7,  -42.0,  -42.0,  -41.9,  -42.0,  -42.2,  -42.1,  999.0,  -42.0,  -42.1,  -41.9,  -42.3,  999.0,  -41.9,  -42.2,  -42.2,  -41.8,  -42.2,  -42.5,  -42.5,  -42.2,  -42.3,  -41.6,  -41.4,  999.0,  -41.9,  -41.7,  -41.8,  -42.2,  -41.6,  -41.9,  -41.7,  -41.0,  -42.2
2000/10/12 08:50,  -41.7,  -41.4,  -41.5,  -41.9,  999.0,  -41.4,  -41.7,  999.0,  -42.1,  -42.5,  999.0,  -41.5,  -42.0,  -41.4,  999.0,  -41.2,  -41.6,  -41.4,  -41.6,  -41.6,  999.0,  -41.6,  -41.7,  999.0,  -41.5,  -41.3,  -41.0,  -41.3,  -41.0,  -41.8,  -41.3,  -41.7,  -41.8,  -42.4,  -42.2,  -41.5,  -41.7,  999.0,  -41.5,  -41.7,  999.0,  -41.5,  -42.5,  -41.8,  -41.3,  -41.5,  -41.0,  -41.2,  -41.6,  -41.7,  -41.5,  -41.6,  -41.6,  -41.5,  -41.6,  -42.5,  -41.8,  -41.4
2000/10/12 09:00,   -0.6,   -0.4,   -1.0,   -0.8,   -0.8,   -0.9,   -0.8,   -0.8,  999.0,   -1.1,   -0.5,   -0.8,  999.0,   -0.3,   -0.9,  999.0,   -1.3,   -0.8,   -0.7,  999.0,  999.0,   -0.5,  999.0,   -0.3,   -0.7,   -0.2,   -0.8,  999.0,   -0.8,   -0.1,   -0.1,   -0.4,   -0.7,   -1.1,  999.0,  999.0,  999.0,   -0.7,   -0.8,   -0.5,  999.0,  999.0,  999.0,  999.0,   -0.1,   -0.8,   -0.1,   -0.5,  999.0,  999.0,  999.0,    0.8,  999.0,   -0.3,  999.0,   -0.6,  999.0,   -0.7
2000/10/12 09:10,    6.6,  999.0,   -1.1,   -0.6,   -0.8,   -0.9,   -1.0,   -1.9,   20.7,   20.7,   13.3,   20.8,   -0.9,  999.0,   -0.6,   -1.1,   13.4,   -1.4,   41.7,   -0.9,   41.6,   20.6,   -0.5,   13.4,   -0.8,   41.9,  999.0,   -0.8,   13.5,   -0.8,   -1.0,   20.9,  999.0,   -0.5,   -0.9,   -0.8,   -0.6,   -0.8,   -0.8,   13.2,   -1.1,   -0.9,   -0.8,   19.6,   -0.7,   21.0,  999.0,   -0.9,  999.0,   -0.7,   -0.7,   -1.0,   -1.0,   -0.4,   -0.8,  999.0,   -0.7,   -0.5
2000/10/12 09:20,   -0.4,   -0.5,   -0.5,  -11.0,   -1.1,  -21.1,   -0.4,  -37.7,   -7.1,  -25.3,   26.0,   22.8,   20.9,   41.5,   22.7,   24.8,   35.0,  999.0,   23.5,   41.6,   41.8,   19.5,   41.9,    9.0,   41.0,   24.5,   20.3,   24.1,   20.6,   20.9,   35.1,   20.8,   20.6,  -16.2,  999.0,   -0.8,   -0.7,  -11.1,   -7.2,  -18.8,  -41.7,   16.3,   41.9,   37.9,  999.0,   41.4,  999.0,   21.5,    2.6,  -16.8,   -3.0,  -12.2,   -3.1,   -2.5,  -19.8,  999.0,   -1.2,   20.8
2000/10/12 09:30,  -28.0,  -27.0,  -28.7,  -30.0,  -39.7,  -42.1,  -35.1,  -38.3,  -41.7,  -38.6,  -31.1,  -36.8,  -41.8,  -27.1,  -32.8,  -29.4,    6.4,  -18.5,  -10.5,  -21.2,    6.3,  -10.2,   -5.5,   -1.4,   -3.4,   -4.9,   14.8,  -21.5,   -2.9,   18.1,   -1.3,   -0.8,   41.5,  -42.6,  999.0,  999.0,   41.8,  -15.1,   42.4,   36.0,   37.2,   20.7,   41.9,   37.6,   16.5,   20.7,    0.5,   13.2,   31.3,   -8.8,  999.0,   19.6,   -0.4,  -12.1,   41.8,  -21.3,  999.0,  -14.8
2000/10/12 09:40,  -28.0,  -10.6,  -21.8,  -40.8,  -15.9,   -6.8,   -0.6,  999.0,   -0.1,  -13.7,   -6.3,  -21.3,   -5.8,   -5.1,   -1.0,  -11.0,  -26.5,  -30.4,  -14.2,  -10.9,  -11.2,   -6.7,  -25.7,  -20.5,  -27.9,  -21.2,  -21.2,  -28.1,  -13.6,  -13.2,  -31.9,  -21.6,  999.0,  -25.7,  999.0,  -35.3,   -0.5,  -16.0,   -9.6,  999.0,  999.0,  -13.6,  999.0,   -1.6,   -0.2,   -0.8,   -0.2,  999.0,   -0.8,   -0.8,   -1.0,   -0.5,   -0.5,   -0.2,  999.0,   -0.3,   -0.7,   -0.2
2000/10/12 09:50,    0.1,  -20.8,    0.0,   -0.6,    0.8,  999.0,    0.7,    0.8,   21.2,   22.0,   36.6,   26.7,   31.8,   41.7,   41.8,   41.9,   42.9,   13.7,   13.6,  999.0,   40.2,   41.4,  999.0,  999.0,   41.3,  -42.9,   -0.3,  -42.4,  -41.5,   -0.1,  999.0,  -42.8,  999.0,   42.2,   -1.1,  999.0,  -28.1,   10.8,   41.6,   11.3,  -34.9,  -31.9,   21.2,  999.0,    9.6,   -0.1,  -21.3,    6.4,  -11.7,  -32.3,  -11.0,    0.7,  -18.9,    0.4,   -0.3,   -0.2,  999.0,   -0.4
2000/10/12 10:00,   -0.0,   -0.6,   -0.8,    1.2,  999.0,   14.8,    8.5,   21.1,    2.9,   -3.6,   18.4,  999.0,   41.9,   37.4,  999.0,  -28.0,    4.9,  999.0,  -38.7,    3.0,   10.8,  -41.5,   10.6,    2.1,   42.1,  -21.2,   41.4,   20.6,   41.2,   41.7,   35.2,   22.3,   20.7,   42.3,   20.5,   30.8,   20.4,   20.4,   24.7,   20.2,   26.5,   36.3,   32.4,   31.6,   34.2,   12.3,  -10.1,    3.6,    4.5,    4.6,   10.7,    7.3,   18.4,   -6.2,   -5.4,    1.3,    0.7,  -20.1
2000/10/12 10:10,  -31.1,  999.0,  999.0,  999.0,  -41.5,  -27.6,  -31.3,  -20.9,  -31.6,  -31.8,  -21.4,  999.0,  999.0,  -41.7,  999.0,  999.0,  999.0,  -16.3,    0.5,  -42.3,    0.9,  -42.2,  -20.4,   -0.8,    1.0,    0.3,   -4.6,   -9.0,   14.0,   15.7,   10.5,   28.5,    6.7,   21.4,   11.2,    9.7,   12.0,  -10.6,   -2.3,   -3.1,    2.3,   14.9,   14.1,   14.4,   19.4,   14.8,    2.3,    9.3,   -9.3,   -5.3,    0.2,   18.2,   10.7,  -20.7,  -10.6,   -6.5,   21.0,  -20.5
2000/10/12 10:20,  -20.5,  -16.9,  -42.2,  -20.9,  -23.0,  -18.6,  -10.2,  -32.6,  -34.6,   -8.3,  -31.0,  999.0,  -38.1,   -8.8,  -26.6,  -23.6,  -42.9,  -28.6,   -6.5,  -33.4,  -38.9,    0.0,  -21.1,  -41.9,  -28.2,  -41.9,  -41.8,  -28.1,  -41.8,  -42.1,  -41.7,  -42.0,  -41.6,  -41.8,  -42.0,  -42.4,  -42.1,  -41.6,  -41.3,   21.2,  -20.3,   21.1,   19.2,   31.5,   -0.2,  -41.8,   17.8,    0.6,   11.1,   -6.5,  -20.6,   -0.3,  -17.3,  -20.2,   -0.1,  -21.1,  -41.4,   -0.2
2000/10/12 10:30,  -14.0,  999.0,  -21.5,  -14.2,  -14.1,  -21.2,   -0.8,    0.2,  -13.8,  -21.2,   10.7,   -0.1,   -0.0,    0.6,   21.2,    0.1,   21.3,   21.0,   21.0,   41.7,  999.0,  999.0,    0.7,   41.7,    0.6,  999.0,    0.2,  999.0,    3.6,   -1.1,   -1.2,   20.0,   -1.1,  -13.5,   -3.1,   -0.5,  -12.8,  -16.4,  -27.7,    0.8,    0.5,    5.8,    0.6,  999.0,  999.0,   34.6,   13.9,   20.6,   11.2,    2.6,   -0.8,   -1.1,    2.9,  999.0,  -10.7,   20.0,   -0.8,    6.1
2000/10/12 10:40,   21.3,   21.2,   15.4,   36.2,   26.2,   22.4,   22.8,   18.6,   21.4,   21.1,   21.4,   16.0,   21.1,   28.3,   31.5,    4.4,   13.9,  999.0,  999.0,   26.5,   21.3,   12.9,   20.0,    9.3,    2.2,   -0.1,    0.4,    1.0,    1.7,   -5.9,    0.0,    3.4,   10.3,    3.6,  999.0,    1.5,   18.9,   -3.5,   19.4,    8.4,  -11.0,   21.5,   28.5,   32.8,   24.6,   17.9,   27.7,   42.1,   21.3,   38.8,   20.1,   20.5,   10.1,   20.4,   -1.7,   -0.8,   10.0,   20.4
2000/10/12 10:50,  -41.8,  -41.6,  -41.7,  -41.4,  -41.8,  999.0,  -41.5,  999.0,  999.0,  -42.0,  -41.6,    0.9,  -13.2,  -13.3,  -13.6,  -20.8,  -20.6,  -13.7,    0.7,  -13.6,  -10.4,    0.7,    0.3,  999.0,   -6.6,   -9.6,    0.1,    1.2,    0.5,    0.4,    1.1,    0.6,    0.8,    0.9,    0.8,    0.2,    0.6,    0.4,    0.5,    0.4,  999.0,    0.8,    1.0,    1.1,    1.0,  -14.1,  -13.8,   -1.7,    0.8,  -13.5,    0.8,    0.8,  999.0,  -20.5,    1.3,  999.0,  -41.9,  -42.0
2000/10/12 11:00,   12.1,  -21.5,  -21.2,  -10.7,   -1.2,  999.0,  -21.3,  -18.1,  -41.9,  -15.2,   -5.4,  -11.5,  -41.9,  -21.9,  -20.2,  -25.5,  -21.2,  -23.1,  -38.7,  -22.2,  -25.4,  -26.9,  -21.4,  -10.8,  -21.1,  -10.2,   -1.0,  -21.5,  -21.5,   -1.2,  -14.5,  -14.5,   -0.7,   -0.5,   -0.7,   -1.0,   -0.8,   -0.7,   -0.9,  999.0,   -0.8,  999.0,  999.0,    0.8,   41.6,   12.0,    9.7,   18.1,   13.6,   10.7,    1.0,    0.3,    7.4,    0.4,   14.2,    0.3,    0.9,    0.2
2000/10/12 11:10,   32.6,    3.3,  999.0,  999.0,  999.0,  999.0,  999.0,  999.0,  999.0,  999.0,  -26.6,  -42.0,  -42.0,  -41.9,  -42.0,  -41.7,  -42.0,  -41.8,  -42.1,  -41.8,  -41.9,  -41.5,  -41.8,  -42.0,  -42.1,  -42.0,  -42.0,  -41.9,  999.0,  -42.1,  -41.8,  -41.4,  -42.0,  -41.6,  999.0,  -42.2,  999.0,  -42.0,  -42.4,  -42.2,  -42.2,  999.0,    0.4,    0.8,    0.8,   -6.4,   -6.3,    0.9,   -6.2,    1.1,  999.0,  -10.0,   -6.5,    0.8,   -6.0,   -9.9,  -20.5,  -13.2
2000/10/12 11:20,   11.6,  999.0,  -13.3,  -10.0,   -6.5,    0.6,    0.8,    0.7,    0.8,    0.9,    1.0,    0.6,  -41.7,    0.6,  -41.4,  -20.8,  -20.5,  -20.7,  -20.4,  -27.8,  -42.1,  -41.5,  -20.4,  -20.1,  -42.4,  -41.8,  -24.3,  -42.0,  -41.8,  -42.1,  -31.3,  -41.9,  -41.7,  999.0,  999.0,    0.9,    1.1,    1.0,    0.7,   42.1,   41.9,   21.2,  999.0,    9.6,  999.0,   26.9,  -41.9,  -28.0,  -31.6,  -12.6,    0.4,  -20.6,    7.4,   -6.4,  -20.4,    0.1,    0.8,  -20.3
2000/10/12 11:30,   -6.3,    0.6,   -6.3,  -13.4,   -9.7,   -6.3,   -9.8,   -9.9,   -9.9,  -13.5,  -15.8,    0.7,  -20.3,    0.7,  -13.7,  -20.3,  999.0,  999.0,  -27.7,  -20.8,    0.8,  -20.5,  -13.3,  -41.9,  -20.5,  -31.1,    0.2,  -20.8,  999.0,    1.0,    0.8,    0.8,   -4.0,    0.5,   -8.3,    1.3,  -17.3,   -7.7,  -16.3,  -14.6,    0.8,   21.4,   31.8,   15.9,   14.4,    9.5,   -3.2,   21.1,    0.4,    0.5,   12.8,    9.3,   -5.5,  999.0,    7.4,   14.3,    0.2,   -5.8
2000/10/12 11:40,   10.6,   21.0,   10.6,   41.6,   -0.3,   21.4,   10.3,   21.3,   21.4,   41.6,    1.0,   41.3,   -0.5,   41.4,   41.8,  999.0,   41.6,   41.5,  999.0,   41.7,   41.8,   41.6,   41.6,  999.0,   41.6,   41.8,   41.7,   41.3,    0.1,    0.1,   41.7,    0.1,    0.1,    0.5,   41.8,   41.9,   -1.8,   33.8,  -41.6,  999.0,   17.9,  999.0,    8.2,    3.5,    0.7,    0.1,  999.0,    0.9,    0.6,    0.5,    0.9,    0.3,    0.7,    0.6,    0.6,    1.0,    0.9,    0.7
2000/10/12 11:50,    6.8,   -0.4,  -41.8,    0.3,   13.9,   14.3,    0.2,    9.3,   20.9,   11.5,   -1.3,  999.0,   13.9,  -25.6,  -11.1,   25.5,    2.0,  -31.5,    2.2,    5.4,    7.5,   -1.7,   15.2,   -0.8,  999.0,   12.0,   16.6,  -10.5,   10.2,    0.4,    3.2,   -3.9,   -5.3,   -6.3,  -24.6,   -4.8,    2.3,   -3.2,   18.5,   18.8,   -8.1,  999.0,    0.7,   18.7,   25.2,   -0.3,   -0.4,   -5.7,   -9.9,  -12.5,   15.7,    3.4,   -9.1,   -0.5,   -0.9,   -0.1,   -0.7,  -13.7
2000/10/12 12:00,  -11.0,  999.0,  -21.1,   -4.8,  -16.2,  -26.9,  999.0,  -28.4,   -4.7,  -12.8,  -11.5,  -10.7,  -41.7,  -11.1,    0.0,   35.5,  999.0,   10.3,   21.2,  -15.3,   10.4,    9.5,  -12.0,   41.7,   11.7,   20.7,   20.7,   20.9,   20.9,   21.1,   31.6,   -0.1,  -37.8,   21.1,    7.6,    0.2,   31.6,    0.1,   -0.1,   41.7,    0.3,  -10.3,  999.0,  999.0,  -16.6,   -0.2,  -35.3,  -21.4,   -0.4,   -0.4,  -38.3,  -12.6,  -36.1,   -1.0,   -0.9,   -1.3,  -10.9,  999.0
2000/10/12 12:10,  -41.9,  -42.2,  -42.1,  -42.2,  -42.2,  -41.7,  -42.2,  -42.0,  -42.0,  -42.1,  -42.0,  -41.9,  -41.7,  -42.1,  -41.9,  -41.8,  -42.0,  -41.8,  -42.0,  -41.7,  -41.8,  -41.6,  -41.8,  -41.6,  -42.1,  -41.8,  -42.1,  -41.9,  -42.0,  -41.9,  -42.1,  -41.9,  -41.9,  -42.2,  -41.9,  -41.8,  -42.2,  -42.0,  -42.3,  -42.0,  -42.1,  -42.4,  -41.9,  -41.7,  -41.8,  -41.9,  -42.0,  -41.8,  -42.0,  -42.1,  -42.1,  -41.8,  -41.6,  -41.8,  -42.1,  -41.9,  -41.6,  -41.8
2000/10/12 12:20,   -0.2,  -14.3,    6.5,   -1.2,   20.6,   -7.4,    7.0,  -10.7,    9.9,   -0.5,    6.9,   -0.3,   -7.5,   -0.3,   14.1,   14.0,   14.0,    7.1,   -0.1,   21.2,   14.8,    3.6,    0.3,   12.7,   13.2,   21.0,   -7.1,   -7.0,    6.3,    7.0,    9.3,    1.6,   -0.4,   -1.7,   17.2,   24.1,    6.5,   -0.0,    7.6,   20.3,   13.2,    3.1,    6.5,   13.7,   -1.0,   16.7,    9.4,  -17.3,   -0.4,    8.3,   -0.7,    1.2,    7.1,    2.1,   27.7,   -0.5,    3.1,  -10.5
2000/10/12 12:30,  -14.2,  -21.0,  -21.2,  -10.6,   -5.1,  -11.4,   -8.3,  -11.9,  -14.2,   -7.0,   -5.8,   -0.6,   -2.6,  -41.5,  -14.3,   -7.2,   -0.4,   20.4,   -7.5,  -21.5,   -0.4,  -14.3,  -10.5,   -7.3,  -21.0,  -14.6,  -14.4,   -7.3,   -0.0,   -0.1,  -21.4,  -10.6,   -0.3,  -21.8,   -0.2,  -14.9,  -21.4,   -7.5,  -14.3,    0.2,  999.0,  -10.7,  999.0,  -21.4,   -7.1,   -0.8,  -21.3,   -0.0,   -7.3,  -14.7,   20.6,   -0.1,  -10.4,   -0.2,    0.0,    9.8,  -21.2,   -7.2
2000/10/12 12:40,  -31.6,  -21.3,  -31.7,  -23.6,  -29.1,  -39.5,  -13.1,  -27.9,  -38.1,  -41.7,  -41.9,  -41.9,  -42.1,  -42.1,  -41.8,  -41.8,  -41.6,  -42.1,  -42.2,  -41.8,  -41.7,  -41.4,  -41.2,  -38.0,  -35.2,  -35.2,  -41.7,  -35.0,  -35.0,  -22.3,  -40.1,  -41.8,  -40.9,  -42.2,  -40.3,  -42.0,  -42.4,  -42.1,  -37.8,  -41.7,  -26.7,  -31.8,  -34.8,  -42.6,  -41.6,  -37.8,  -40.3,  -35.2,  -41.8,  -40.1,  -31.4,  -33.8,  -29.0,  -32.6,  -41.7,  -35.4,  -31.6,  -41.0
2000/10/12 12:50,  -21.0,  -21.0,  -18.2,  -27.4,   -3.1,  -24.3,  -35.4,   -7.3,  -16.0,  -16.6,  -24.1,  -41.8,  -26.1,  -29.8,  -21.1,  -24.6,  -30.5,  -24.1,  -41.0,  -35.9,  -14.0,  -28.0,  -29.0,  -30.3,  -20.8,   -0.5,  -41.9,  -21.5,  -20.7,  -10.5,  -27.3,  -15.2,  -19.0,  -40.5,  -42.0,  -41.9,  -30.1,  -23.6,  -29.4,  -42.3,  -38.2,  -24.4,   -4.9,  -24.8,  -16.6,  -27.8,  -25.7,  -22.9,  -27.8,  -26.6,  -21.6,   -4.1,  -18.0,  -21.2,  -20.1,   -0.2,  -31.6,  -11.0
2000/10/12 13:00,  -27.7,  -20.3,  -20.3,  -42.0,  -34.7,  -27.8,    0.7,  -31.5,  -42.2,  -20.7,  -27.6,  -31.4,  -42.0,  -42.4,  -42.1,  -41.8,  -20.2,    1.1,  -42.0,  -41.8,  -34.6,  -31.2,    0.2,  -41.9,  -41.9,  -31.0,  -30.9,  -20.9,  -41.8,  -31.4,  -20.5,  -20.6,  -41.6,  -31.1,  -31.4,    0.4,  -31.3,  -34.8,  -31.3,  -27.9,  -34.8,  -31.2,  -20.7,    1.1,  -41.9,  -20.5,  -28.1,  -31.2,  -30.7,  -41.9,  -41.6,  -34.8,  -34.8,  -20.3,  -31.4,  -20.7,  -20.7,  -41.8
2000/10/12 13:10,   -0.3,   -0.9,   41.8,   21.4,   42.2,   41.6,   41.7,   41.7,   19.9,   30.9,   28.1,   28.1,   20.4,   13.7,   27.9,  999.0,   21.0,   42.1,  999.0,   31.0,   20.3,   41.7,   -0.4,   21.8,   21.2,   28.1,   41.6,   41.8,   28.0,   28.0,   41.3,   21.2,   27.9,   28.1,   41.9,   28.0,   21.6,   31.3,   -0.5,   41.8,    0.7,   28.1,   41.7,   20.9,   28.1,   28.1,   42.1,   13.8,  999.0,   42.2,   41.7,   41.6,   40.8,   41.9,   41.9,   41.8,   41.5,   41.5
2000/10/12 13:20,    7.5,   10.7,    0.8,   21.1,    7.7,   12.7,    5.1,    5.3,   11.3,    7.5,    9.1,   11.8,   21.3,  999.0,   18.5,   16.8,   15.3,   16.7,   18.4,   20.0,   32.9,   31.4,   29.2,   39.5,   31.5,   27.8,    1.7,   27.5,   22.4,   20.5,   15.0,    1.2,   14.5,   16.6,   33.6,   18.3,   19.1,   19.9,    6.4,   -8.3,   15.0,   20.8,   41.8,   37.3,   14.2,   17.4,    6.8,   27.9,   27.1,   17.8,   23.6,    7.4,    1.2,    6.0,   40.7,    7.5,   15.8,   14.0
2000/10/12 13:30,  -14.1,  -17.3,  -42.1,  -18.8,  -17.3,  -26.3,  -28.5,  -23.6,  -31.6,  -38.2,  -31.4,  -31.7,  -42.2,  -28.0,  -31.8,    1.2,  -26.2,  -28.6,   -3.8,  -18.1,    0.4,    4.0,    9.8,    3.3,   -0.0,   -0.0,   -6.7,   -6.2,   -6.6,  -20.8,    7.1,    0.6,    1.0,    7.7,    7.9,    5.6,    2.8,  -10.9,   -6.4,    0.7,   -2.7,   -3.2,    0.8,  -10.2,    1.8,    7.5,    0.3,    2.0,   12.1,   12.9,    0.5,    0.9,   -2.9,    7.1,    7.4,   21.2,    7.4,    0.5
2000/10/12 13:40,  -21.3,   -0.9,  -15.7,  -21.4,   -8.3,  -26.4,  -23.4,  -25.7,  -19.1,  -21.4,  -37.5,  -28.1,  -24.8,  -21.5,  -31.6,  -11.3,  -32.5,  999.0,   -0.6,  -20.2,   -0.3,   -0.9,   -1.3,   -0.7,  -14.1,    0.7,    9.9,   -6.8,    0.3,   -0.2,   -0.1,    9.9,   18.6,    0.2,    1.8,   -6.9,   -4.6,   10.7,    9.9,    7.0,   -0.1,   -0.1,  -10.5,   -3.0,   -8.7,   10.0,    4.1,   -2.7,   13.3,    9.6,    8.4,    0.3,   -0.1,    1.6,   10.0,    0.0,   -0.3,   -5.0
2000/10/12 13:50,    6.4,   -0.7,   -0.8,    6.6,   -1.0,   -0.9,   -1.1,    6.3,   -0.7,    6.9,    6.5,   -0.8,    9.9,   -0.9,   -0.7,   -0.9,   -0.7,   -0.6,   -0.6,   -0.7,    6.0,   -0.7,   13.6,    6.4,   -0.8,   -0.7,   -0.8,   -0.8,   -0.7,   -0.5,   -0.5,   13.6,   -0.6,   -1.0,   -0.5,   -0.6,   -0.8,   -0.8,   -1.2,   -0.8,   -0.8,   -0.8,   -0.8,   -0.3,    6.6,   -0.5,    6.5,   -0.6,   -0.9,   -0.7,   -0.6,   -0.7,   -1.3,    6.6,   -0.5,   -1.0,   -0.7,   -1.1
2000/10/12 14:00,    6.4,   -0.7,   42.3,   13.4,   41.9,   -0.8,   13.3,    6.7,    6.2,    6.4,   13.6,   -0.8,   -0.6,   -0.6,   13.6,    6.3,   13.4,   -0.8,    6.4,    6.3,   -0.5,   13.4,   -0.5,   -0.9,   13.8,   -0.9,   -0.8,    6.3,   13.4,   20.7,   10.0,   20.7,   13.6,   -0.8,   13.3,   20.5,   13.8,   -1.0,   13.7,    6.5,   -0.8,   13.2,   -0.7,    6.5,   -0.5,    6.5,   13.7,   -0.9,   -1.0,   -0.6,   -0.8,   -0.9,   -0.8,   -1.2,   -1.0,   -1.3,   -0.9,   -0.5
2000/10/12 14:10,  999.0,  999.0,  999.0,  999.0,  -11.3,  999.0,    7.6,   -3.8,    0.0,  -10.7,   -5.3,    7.4,  -10.9,  -13.2,   -4.4,    6.5,   -7.5,    1.8,   20.5,   -3.1,   -1.1,  -15.3,   -5.8,  -19.4,  -15.1,  -31.6,  -14.3,  -21.1,  -14.7,   -8.1,  -25.0,  -11.4,  -10.7,   -7.7,   -0.1,   -7.4,   -7.3,   -0.0,   -7.4,  -14.4,  -14.5,   -1.0,  -21.0,   -7.4,  -14.5,   -7.6,  -21.2,   -7.4,   -7.2,  -16.2,  -21.5,  -20.1,    0.1,  -20.3,  -21.5,    0.0,  -10.5,   -7.5
2000/10/12 14:20,  999.0,  999.0,  999.0,  999.0,   20.5,   20.8,   31.2,   41.8,   -0.8,   29.1,   -6.0,    1.3,   -3.8,    9.8,    9.6,   19.0,    1.8,   -1.5,   16.5,   10.5,   20.7,    6.5,   31.4,    9.6,   13.5,   13.4,   13.3,   20.3,   27.8,    6.6,    6.7,   -0.4,   13.5,   13.5,   10.1,   13.7,   10.0,    6.4,   20.5,   -0.8,   13.3,    9.9,   20.5,    6.1,   13.6,   -0.3,    6.2,   10.0,   13.7,   13.9,    9.9,   20.6,   20.6,   27.6,   13.5,   27.2,   13.1,    7.3
2000/10/12 14:30,  -14.0,  -21.1,  -30.0,  -20.9,  -19.4,  -18.1,  -25.5,  -27.9,  -38.9,  -13.1,   -5.6,   -2.0,   -1.1,   -0.8,   -0.8,  -14.9,  -14.5,   -7.5,   -7.6,  -14.5,  -14.5,  -14.5,  -10.8,  -10.9,  -14.5,  -10.3,   -7.2,  -21.5,  -21.2,    1.3,   -0.4,   -7.4,   -7.3,  -14.7,   -0.0,   -1.2,   -1.1,  -14.5,   -7.0,   -7.2,  -10.3,   -0.7,   -1.1,   -1.1,   -1.1,   -0.7,   -0.8,   -0.8,   -0.8,   -0.8,   -0.5,   -0.5,   -0.9,   -0.8,   -1.1,   -0.6,   -0.7,   -0.5
2000/10/12 14:40,  -41.9,  -41.7,  -41.8,  -41.6,  -41.7,  -42.0,  -41.9,  -42.0,  -41.8,  -40.8,  -37.7,  -37.6,  -32.8,  -34.2,  -32.4,  -30.8,  -23.1,  -41.9,  -41.9,  -28.0,  -41.7,  -28.1,  -42.0,  -30.8,  -28.1,  -41.7,  -31.3,  -21.5,  -31.5,  -42.3,  -22.6,  -14.1,  -39.2,  -42.0,  -31.4,  -14.1,  -10.7,  -42.1,  -32.7,  -31.5,  -20.4,  -10.9,  -24.2,  -27.1,  999.0,  -21.0,  999.0,  -23.1,  -19.1,  -41.9,  -21.0,  -22.0,  -20.5,  -26.2,  -14.2,  -31.2,  -21.0,  -41.6
2000/10/12 14:50,  -21.0,  -22.9,  -27.6,  -31.2,  -31.2,  -23.9,  -24.7,  -29.6,  -31.4,  -19.2,  -22.0,  -15.1,  -23.9,  -18.0,  -31.6,  -42.2,  -31.5,  -31.3,  -42.1,  -20.9,  -31.5,  -34.7,  -41.8,  -42.1,  -41.8,  -34.6,  -41.8,  -27.6,  -34.7,  -34.7,  -34.7,  -42.0,  -31.4,  -42.1,  -34.9,  -27.7,  -34.9,  -34.9,  -42.2,  -41.9,  -41.9,  -42.0,  -41.9,  -42.3,  -41.9,  -41.8,  -41.9,  -41.8,  -42.0,  -41.7,  -41.9,  -41.8,  -41.9,  -41.9,  -41.8,  -41.9,  -41.9,  -41.9
2000/10/12 15:00,  -14.0,  -10.8,  -20.4,   21.5,   10.8,  -20.1,   21.2,  -13.9,  -14.1,  -14.0,   21.1,    0.3,  -28.1,   -0.1,  -20.6,  -20.3,    0.9,  999.0,  -14.0,  -31.1,    0.2,  -21.4,  -13.8,  -41.9,  -13.9,  -21.7,  -21.3,   -0.8,  -42.1,  -21.5,  -20.9,   -0.7,  -20.6,  999.0,  -21.7,  -21.5,  -42.4,  -21.6,   -0.6,  -21.1,  -42.1,   -0.7,  -28.4,  -42.3,  -42.1,  -42.0,  -42.4,  -42.0,  -42.3,  -42.1,  -41.2,  -41.9,  -41.5,  -41.7,  -41.5,  -42.1,  -42.0,  -42.2
2000/10/12 15:10,  -41.9,  -27.5,  999.0,  -41.8,  -42.3,  -41.9,  -20.4,  -42.3,  -42.2,  -41.9,  -41.6,  -41.7,  -41.8,  -42.4,  -41.9,  -42.0,  -42.1,  999.0,  -42.3,  -42.0,  -42.0,  -42.0,  -42.0,  -42.0,  -41.9,  -41.8,  -41.9,  -41.7,  -41.7,  -41.6,  -42.1,  -41.8,  -42.2,  -41.6,  -41.7,  -42.0,  -41.4,  -41.8,  999.0,  -42.0,  -41.9,  -41.6,  -42.0,  -41.8,  -42.5,  -27.6,  -35.1,  -42.2,  -42.8,  -42.3,  -20.8,  -42.8,  -41.9,  -41.9,  -41.9,  -42.3,  -31.4,  -21.1
2000/10/12 15:20,  -34.9,  -21.0,  -42.1,  -20.7,  -28.3,  -42.2,  -42.3,  -42.3,  -42.0,  -28.2,  -20.7,  -34.9,  -41.8,  -27.7,  -27.8,  -21.2,  -20.5,  -31.2,  -41.8,  -34.9,  -34.8,  -28.1,  -21.2,  -31.8,  -42.3,  -27.8,  -20.6,  -35.4,  -31.2,  -35.1,  -31.4,  -42.1,  -31.7,  -42.1,  -21.1,  -21.0,  -35.0,  -41.9,  -27.6,  -41.8,  -41.9,  -20.4,  -42.0,  -27.7,  -31.5,  -21.0,  -27.8,  -31.4,  -41.8,  -20.6,  -41.7,  -35.0,  -31.4,  -34.9,  -42.2,  -31.6,  -20.9,  -42.1
2000/10/12 15:30,  -35.1,  -41.9,  -42.0,  -25.5,  -42.2,  -42.2,  -41.7,  999.0,  -41.9,  -42.0,  -42.0,  -41.7,  -36.8,  -42.2,  -42.0,  -41.9,  -42.1,  -42.1,  -36.1,  -31.4,  -41.6,  -21.6,  -42.0,  -21.5,  -30.6,  -42.1,  -41.8,  -35.1,  -41.9,  -40.5,  -42.0,  -42.4,  -41.4,  -41.9,  -42.5,  -24.4,   -7.9,  -41.8,  -42.0,  -12.4,  -36.3,  -36.8,  -42.2,  -42.0,  -42.0,  -40.9,  -38.7,  -25.7,  -28.6,  999.0,  -21.7,  -23.0,  -32.0,  -42.3,  -42.0,  -32.7,  -12.2,  -10.0
2000/10/12 15:40,  -28.0,  -42.0,  -42.1,  -41.8,  -39.4,  -20.7,  -42.4,  -41.9,  -31.4,  -42.0,  -26.2,  -31.2,  -42.1,  -20.7,  -42.0,  -31.1,  -42.0,  -41.8,  999.0,  -42.2,  -31.4,  -41.5,  -41.7,  -20.8,  -41.8,  -42.0,  -20.6,  -42.1,  -20.7,  -42.0,  -31.2,  -41.5,  -21.1,  -21.7,  -20.8,    0.1,  -14.0,   -6.9,  -14.1,  -42.3,  999.0,  -42.0,  -10.5,  -41.8,  -41.7,  -12.5,  -42.0,  -41.8,  -42.1,  -41.6,  -42.0,  -41.6,  -42.0,   -0.1,  -41.7,  -14.1,  -14.2,  -14.0
2000/10/12 15:50,  -10.7,  -10.3,  -10.6,    0.1,    0.2,  -20.8,  -17.9,   -7.5,  -14.2,   -0.0,  -20.4,  -42.1,  -42.2,  -20.8,  -21.2,  -10.8,  -15.8,  -18.6,   -0.5,   -9.4,   12.2,  999.0,    1.6,   10.9,   -0.8,    5.7,  -21.7,   -0.6,   -0.6,  -41.9,  -13.5,   -0.2,   -0.4,  -21.5,   10.8,  -20.9,   -0.5,   -0.1,  -15.7,  -19.3,   16.5,   10.5,   -6.1,   11.7,   41.9,    2.5,  -21.2,  -21.2,  -28.0,  -31.1,  -21.2,  -20.7,  -21.0,  -31.3,  -41.7,  -20.4,  -20.7,   -0.8
2000/10/12 16:00,   14.0,    0.1,   13.9,   14.1,   14.2,    0.1,   13.8,    0.0,   14.3,    0.1,    0.2,   13.8,   14.1,   41.8,   -0.1,   -0.2,   14.0,    0.1,   14.0,   -0.1,   41.7,    0.1,   13.9,   14.2,   41.5,   14.0,   14.0,   -0.1,   41.9,   14.1,   13.9,    0.2,   41.9,    0.0,   42.0,   14.1,   41.8,   14.2,   -0.2,   -0.0,   14.2,    0.3,    0.1,    0.0,   -0.1,   14.6,   41.9,   -0.2,   -0.1,   42.3,    0.1,   41.7,   14.0,   42.1,   42.0,   41.8,   41.9,   41.9
2000/10/12 16:10,  -10.2,  -21.0,   -1.6,   -8.2,  -21.1,    0.7,  -28.0,   -3.2,  -24.3,  -18.2,  -20.4,   11.0,    9.6,  -11.0,  -21.6,   10.5,   17.8,  -21.1,  -31.6,  -21.1,  -31.7,   -1.4,  -28.3,  -20.8,  -20.7,  -31.0,  -10.5,  -10.3,  -10.4,  -10.4,    0.4,   -9.9,    3.0,  -23.1,  -28.5,  -20.8,  -24.5,  -14.3,    4.6,   -5.2,  -28.3,  -12.9,  -20.8,  -10.3,  -10.3,  -41.8,  -20.8,  -10.1,   -9.8,  -39.3,   21.0,  -21.0,    1.6,   21.6,   10.9,    0.0,  -10.2,  -20.1
2000/10/12 16:20,  -27.9,  -29.5,  -20.0,  -34.5,  -41.8,  -27.7,  -34.9,  -31.4,  -34.8,  -42.0,  -41.6,  -31.2,  -27.4,  -27.6,  -31.5,  -41.7,  -34.7,  -27.8,  -34.8,  -31.3,  -23.6,  -29.2,  -34.8,  -42.1,  -41.8,  -24.2,  -21.0,  -42.1,  -34.9,  -20.6,  -31.6,  -21.4,  -22.4,  -19.4,  -15.8,  -37.8,  -41.8,  -41.8,  -29.6,  -21.1,  -24.0,  -19.1,  -26.9,   -8.7,  -37.7,  -33.5,  -17.1,  -38.5,  -14.9,  -13.2,   -3.0,  -14.2,  -15.0,  -19.6,   -7.9,  -31.9,  -14.1,  -27.0
2000/10/12 16:30,  -34.9,  -29.0,  -33.9,  -40.4,  -41.7,  -42.2,  -41.4,  -41.9,  -41.8,  -33.6,  -32.0,  -34.8,  -36.8,  -39.8,  -41.5,  -41.8,  -42.1,  -37.4,  -31.9,  -41.9,  -38.6,  -29.3,  -32.7,  999.0,  -31.4,  -35.0,  -41.8,  -38.3,  -41.7,  -35.5,  -28.9,  -28.0,  -30.8,  -30.3,  -29.8,  -28.4,  -41.8,  -34.9,  -30.9,  -41.9,  -34.1,  -31.7,  -38.2,  -41.6,  -34.8,  -37.3,  -41.8,  -41.9,  -41.7,  -41.9,  -39.2,  -30.1,  -39.0,  -28.1,  -28.1,  -28.0,  -31.2,  -21.3
2000/10/12 16:40,  -34.8,  -41.8,  -42.3,  -27.6,  -41.8,  -35.0,  -42.1,  -41.9,  -34.7,  -27.8,  -34.7,  -27.8,  -41.9,  -34.8,  -28.0,  -27.8,  -42.0,  -27.9,  -35.1,  -34.9,  -31.4,  -27.6,  -34.8,  -41.8,  -34.6,  -27.7,  -34.9,  -27.9,  -20.5,  -42.1,  -31.0,  -35.0,  -34.6,  -34.7,  -27.7,  -34.9,  -41.6,  -38.8,  -33.7,  -18.3,   -5.7,  -31.9,  -36.1,  -41.9,  -31.9,  -23.1,  -30.9,  -42.0,  -34.9,  -41.4,  -30.9,  -42.0,  -34.7,  -27.5,  -27.7,  -34.7,  -41.6,  -34.8
2000/10/12 16:50,  -20.9,    9.1,  -12.5,  -23.5,  -29.9,  -41.9,  999.0,  -41.9,  -32.5,  -14.1,  -32.9,  -28.2,  -41.7,   -9.7,  -38.9,  999.0,  -42.1,  -38.8,    5.8,   -9.0,  -42.0,    3.0,    0.2,  -11.9,  -21.3,  -27.8,  -27.5,  -34.8,  -13.1,  -20.7,  -20.7,  -27.6,  -27.8,  -27.4,  -27.7,  -20.5,  -42.2,  -27.8,  -42.3,  -41.9,  -41.7,  -41.8,  -41.9,  -41.9,  -41.8,  -41.3,  -42.4,  -41.9,  -41.9,  -34.0,  -42.1,  -35.0,  -41.9,  -28.7,  -37.5,  -41.6,  -42.2,  -42.1
2000/10/12 17:00,  -41.8,  -41.5,  -41.6,  -41.9,  -41.6,  -41.4,  -41.6,  -41.7,  -41.6,  -41.7,  -41.8,  -40.4,  -42.0,  -41.6,  -41.3,  -41.7,  -41.6,  -41.3,  -41.6,  -41.7,  -41.8,  -41.9,  -41.7,  -41.9,  -42.0,  -41.8,  -41.7,  -42.1,  -41.9,  -41.8,  -42.1,  -42.0,  -41.9,  -42.1,  -41.7,  -41.5,  -42.3,  -41.6,  -41.8,  -41.8,  -41.7,  -41.3,  -41.6,  -41.7,  -41.9,  -41.8,  -41.6,  -41.4,  -41.8,  -41.6,  -41.8,  -42.1,  -41.9,  -42.2,  -41.7,  -41.8,  -41.8,  -41.9
2000/10/12 17:10,   11.0,    2.5,   17.8,   15.7,    9.3,    4.5,    0.7,    0.5,    0.8,    6.4,   11.0,    0.3,   -4.5,  999.0,   -6.5,  -20.7,   -6.4,   -9.0,   12.7,   -7.5,   -4.9,   -6.6,    0.6,   23.5,    1.0,    0.1,    0.8,    0.2,   -0.0,   -6.5,   -6.5,  -19.3,    5.0,  -20.6,    0.4,   -9.8,   -8.9,  -10.0,  -20.6,  -13.6,  -12.0,  -10.3,  -41.7,  -41.9,   -6.9,  -14.0,   -7.7,   -7.3,   -9.1,   -8.1,  -25.4,   -1.8,  -13.2,  -15.6,  -34.9,  -27.6,   -7.2,  -20.8
2000/10/12 17:20,   41.8,   42.0,   41.7,   41.9,   41.8,   41.8,   41.9,   42.0,   41.9,   41.5,   41.3,   -0.6,   -0.5,   -0.8,   -0.8,   -0.8,   -0.5,   -0.8,   -0.8,   -0.4,   -0.8,   -0.9,   -1.0,   -0.4,   -0.7,   -1.0,   -0.6,   -0.7,   -0.9,   -0.5,   -0.8,   -0.9,   -0.9,   -0.8,   -0.7,   -0.8,   -0.4,   -0.6,   -0.7,   -0.8,   -0.9,   -0.8,   -0.9,   -0.9,   -0.7,   -0.9,   -0.8,   -0.8,   -1.0,   -0.7,   -0.7,   -0.5,   -0.7,   -1.0,   -0.5,   -1.2,   -0.8,   -0.6
2000/10/12 17:30,   28.2,   28.4,   28.3,   28.1,   33.3,   29.8,   34.3,   29.7,    5.8,   24.5,   33.6,   31.9,   25.0,   30.9,   42.5,   13.0,   23.9,   33.9,   35.4,   28.8,   42.0,  999.0,   -0.1,  999.0,    5.0,   -2.2,  -10.4,    9.5,    0.6,  -20.0,   -0.3,  -15.2,  -19.3,  -16.7,   -7.0,  -10.8,   35.6,  -13.6,  -10.3,   -5.3,   -1.0,   -5.4,   -8.6,  -22.1,   -5.4,    4.9,    9.8,  -14.3,  -21.4,  -21.1,   -9.1,   -1.2,   -0.6,   -0.5,   -0.4,   -7.5,   -0.4,   13.5
2000/10/12 17:40,   13.4,    6.3,   20.5,   -0.5,   21.0,   -0.4,   13.3,   20.8,   13.3,    9.7,    0.3,   42.4,   10.3,   20.3,    9.6,   20.6,  999.0,   20.6,   20.4,   27.3,   27.5,   41.7,   20.9,   27.2,   41.7,   41.5,   20.6,   21.1,   41.7,    0.6,   13.7,   16.7,   19.9,   14.2,   26.7,   18.3,   20.6,   25.1,   27.6,   27.7,   27.4,   27.8,   20.4,   27.2,   27.7,   27.6,   27.8,   25.5,   19.9,   16.3,   12.8,    5.9,    0.8,    3.9,   10.3,   20.8,   10.1,   11.2
2000/10/12 17:50,    6.6,   -2.5,   20.7,   41.6,  -21.2,  -41.5,   14.7,   21.0,   20.7,   21.1,   42.4,   41.7,   20.7,   41.9,   20.4,   41.5,   20.2,   38.6,   34.7,   32.9,   30.9,   38.3,   27.0,    0.3,   10.7,   28.6,   21.8,   41.9,   22.9,    1.0,   -0.1,   17.5,   35.7,   -0.3,  999.0,  -10.7,   -0.7,   -8.1,   -8.8,  -21.2,  -20.9,  -11.1,   -0.7,   -6.4,   -1.0,   -0.5,   -0.8,   -1.2,  -12.8,   -7.2,   -0.6,   -2.5,   -0.7,   -0.5,   -1.7,   -0.7,   -1.3,   -0.5
2000/10/12 18:00,   20.5,   20.4,   41.7,  999.0,   -2.2,  999.0,  999.0,   42.0,  999.0,   41.9,   41.8,   42.2,   42.3,   42.0,   41.7,   42.3,   41.6,   42.5,   42.1,   41.9,   41.9,   20.6,   20.6,   20.6,   42.2,   42.3,   41.3,   30.9,   41.7,   -0.8,   20.7,   41.9,  999.0,   42.2,  999.0,  999.0,  999.0,  999.0,   -0.2,   -0.4,   -0.1,   -0.6,   -0.9,  999.0,  999.0,  999.0,   -0.9,  999.0,   -0.3,  999.0,   -0.2,   -0.6,   -1.1,   -0.3,  999.0,   -0.7,   -0.6,   -1.0
2000/10/12 18:10,   34.7,   33.1,   15.0,   41.9,   38.5,   24.1,   20.7,   38.5,   19.3,   41.7,   20.6,   20.6,   34.6,   -0.9,   42.1,   27.8,   41.8,   42.0,   21.0,   20.6,  999.0,   -0.7,   -1.1,   42.1,   41.6,   20.5,   42.2,   -0.8,  999.0,  999.0,  999.0,    0.6,   21.1,   -0.9,  999.0,  999.0,   -0.3,  999.0,    7.5,   -1.2,    5.8,   -1.0,    9.6,   12.2,   -5.6,   -1.1,   -1.6,   -0.9,   -8.6,   -8.8,   -1.1,   -0.4,   -9.8,   -0.3,   -1.0,  999.0,  -14.5,  -21.2
2000/10/12 18:20,   20.6,   41.6,  999.0,   20.4,   22.7,    0.8,    0.6,    0.7,  -11.9,   -1.7,   10.0,   -0.2,   -0.9,  -30.9,   10.3,   -0.5,    0.1,   20.7,  -35.7,   19.8,  -14.3,  -11.0,  -20.6,   34.5,   17.2,   18.3,  -42.3,   -1.0,   -0.7,  -14.5,   -1.0,   -1.7,  999.0,   -0.8,  -21.3,   -4.0,    5.5,   -0.3,  -11.4,  -21.3,   -9.2,  -10.1,   -1.0,  -22.1,  -41.6,  999.0,  -21.4,  -41.6,  -42.0,  -21.5,    0.3,    0.9,   -0.1,  999.0,  -14.2,  -20.3,  -20.3,  -20.4
2000/10/12 18:30,  999.0,  999.0,  999.0,  999.0,  999.0,  999.0,  999.0,  999.0,  -17.9,  -18.9,  999.0,  -20.8,  999.0,  -22.3,   -9.5,  -23.1,   -0.7,  -23.9,    9.1,   41.3,    7.6,    7.7,  999.0,  -26.8,   41.3,  -28.6,  999.0,    6.2,    6.0,  -30.7,  -32.0,    5.0,    4.3,   41.7,  999.0,  999.0,  999.0,  999.0,  -36.1,  999.0,  -36.5,  999.0,  -37.8,  999.0,  -38.4,  999.0,  999.0,  999.0,   -1.4,   -1.6,  999.0,  -25.6,  -39.6,  999.0,  999.0,  -40.6,  999.0,  999.0
2000/10/12 18:40,  999.0,  999.0,  999.0,  999.0,  999.0,  999.0,  999.0,    1.9,  999.0,   -9.6,  -13.2,  999.0,  999.0,  999.0,  999.0,  -10.5,  -22.3,  -20.8,  -11.4,  -20.6,  -17.5,  -14.2,  -18.1,  -15.6,  -16.9,  -14.6,  -16.0,  -16.3,  -15.4,  999.0,  -12.6,  -13.3,  -13.2,  -12.6,   -6.5,  999.0,  999.0,   -3.4,   -4.1,   -3.4,    5.1,  999.0,  999.0,   41.8,  999.0,  999.0,   42.9,   20.4,  999.0,  999.0,   -0.1,   20.3,   42.0,   20.7,   42.3,   42.0,   41.5,    0.5
2000/10/12 18:50,  999.0,  999.0,  999.0,  999.0,  999.0,  999.0,  999.0,  999.0,  999.0,  999.0,  999.0,  999.0,  999.0,   -8.2,  999.0,  999.0,  999.0,  999.0,  999.0,  999.0,  -21.9,  -22.1,  -16.9,  999.0,  999.0,  -15.7,  -19.5,  -13.1,   -7.4,  999.0,  999.0,  999.0,  999.0,  999.0,   -3.8,  999.0,  999.0,  999.0,  999.0,    7.2,  999.0,  999.0,  999.0,  999.0,  999.0,  999.0,  999.0,  999.0,   -1.1,  999.0,  999.0,  999.0,   -0.4,   -1.2,   -1.3,  999.0,   20.9,   20.7
2000/10/12 19:00,  999.0,  999.0,  999.0,  999.0,  999.0,  999.0,  999.0,  999.0,  999.0,   -2.7,    2.3,   -1.7,  999.0,  999.0,  999.0,   -4.7,    4.1,  999.0,  999.0,  999.0,  999.0,  -21.9,  -21.5,  -20.8,  -18.8,  -17.3,  999.0,  -14.8,  -12.7,  -11.5,  -10.4,  999.0,  -24.2,  -22.9,  999.0,  -22.8,  -22.9,  999.0,  999.0,  -21.9,  -22.3,  -22.5,  -21.5,  -21.0,  -21.6,  999.0,  -21.0,  999.0,  999.0,  999.0,  999.0,  999.0,  999.0,   42.1,   41.8,  999.0,   41.9,   41.8
2000/10/12 19:10,  999.0,  999.0,  999.0,  999.0,   -0.2,   -3.2,  999.0,  999.0,  999.0,  999.0,  999.0,  999.0,  999.0,  999.0,   -1.2,   -4.8,  999.0,  999.0,   -7.2,  999.0,  999.0,  999.0,  -16.5,  -15.4,  -18.6,  -14.7,  -13.3,  -10.8,  999.0,   -9.9,  -10.0,  999.0,   -4.5,  999.0,  999.0,  999.0,  999.0,  999.0,  999.0,  999.0,  999.0,  999.0,  999.0,  999.0,  999.0,  999.0,  999.0,  999.0,  999.0,  999.0,  999.0,  999.0,  999.0,   42.2,  999.0,   42.0,   42.5,   42.3
2000/10/12 19:20,  999.0,  999.0,  999.0,  999.0,  999.0,  999.0,  999.0,    2.9,    6.0,   -5.4,   -2.0,  999.0,  999.0,  999.0,   -4.4,  999.0,  999.0,   -8.8,  999.0,  -11.0,  999.0,  -11.0,  -10.2,  -10.4,   -9.0,   -9.6,  -12.8,  -12.6,  -16.8,  -12.2,   -8.7,  -12.6,  999.0,  -12.9,  999.0,  999.0,  999.0,  999.0,  999.0,  999.0,  999.0,  999.0,  999.0,  999.0,  999.0,  999.0,  999.0,  999.0,  999.0,  999.0,  999.0,   42.6,  999.0,   42.6,  999.0,   42.4,   42.2,   42.3
2000/10/12 19:30,  999.0,  999.0,  999.0,  999.0,  999.0,  999.0,  999.0,  999.0,  999.0,  999.0,  999.0,   -1.3,   -2.8,  999.0,  -12.1,   -7.7,  999.0,  999.0,  999.0,  -19.2,  -14.4,   29.5,   -5.4,   -4.3,    0.9,    1.5,   14.0,   15.4,   -5.0,  999.0,   -1.0,   39.0,   20.4,   20.5,  999.0,   41.4,  999.0,   41.6,  999.0,  999.0,   41.6,  999.0,  999.0,   42.3,  999.0,  999.0,  999.0,   41.6,   41.5,  999.0,  999.0,   34.0,   42.4,   41.9,   41.9,   41.8,   42.0,   41.6
2000/10/12 19:40,  999.0,  999.0,  999.0,  999.0,  999.0,  999.0,  999.0,  999.0,  999.0,  999.0,  999.0,  -13.3,  999.0,  999.0,   -3.3,  999.0,  999.0,  999.0,  999.0,  999.0,  999.0,  999.0,  -17.8,  -18.5,  -18.3,  -18.9,  999.0,   -1.1,  -10.7,  -20.5,   -1.0,  999.0,  999.0,  999.0,  999.0,  999.0,  999.0,  999.0,  999.0,  999.0,  999.0,  999.0,  999.0,  999.0,  999.0,  999.0,  999.0,  999.0,  999.0,  999.0,  999.0,  999.0,  999.0,   41.1,  999.0,   41.8,   42.1,   41.6
2000/10/12 19:50,  999.0,  999.0,  999.0,  -22.7,  999.0,  999.0,  -19.4,  999.0,  999.0,  999.0,  999.0,  -20.8,  -21.2,  -20.9,  -19.6,  -11.4,  -15.6,  -13.0,  -11.9,  -10.5,  999.0,   -7.3,   -5.3,   -2.1,   -1.2,   -0.9,   -0.3,   -0.5,    4.3,  999.0,   -0.8,   -0.7,   -0.5,   -1.1,   -0.8,   -0.9,   -0.9,   -1.0,   -1.1,   -0.4,  999.0,   -0.1,   -1.4,   -0.9,   -1.0,  999.0,   -0.4,  999.0,   -0.6,   -0.2,   -0.5,   -0.6,   -0.9,   -0.4,   -0.9,   -0.8,   -0.6,   -0.9
2000/10/12 20:00,   20.6,   20.3,   42.6,  999.0,  999.0,   42.1,   -0.7,  999.0,  999.0,  999.0,  999.0,   41.8,  -12.6,  999.0,  -20.5,   -0.7,  -17.9,    2.4,   -7.6,   20.7,   -0.9,  999.0,   -0.5,   -6.0,   -5.3,  999.0,  999.0,  999.0,   -1.1,   -0.2,   -0.9,  999.0,   -0.7,   -1.4,   -0.9,   41.6,   -1.0,   -0.7,  999.0,  999.0,   -0.1,   -0.5,    9.9,  999.0,  999.0,   20.5,   -1.2,  999.0,   20.4,   20.5,  999.0,   -0.9,   -0.8,    0.1,   -0.5,   -0.6,  999.0,   -0.7
2000/10/12 20:10,    0.7,  999.0,    0.7,    1.0,  999.0,    1.0,    0.5,  999.0,    0.7,    0.9,  999.0,    0.5,    0.4,    0.8,    0.9,  999.0,    0.9,    1.1,    0.6,    0.4,    0.8,    0.7,    0.6,    0.5,    0.3,    1.1,    0.9,    1.0,  999.0,    1.0,    0.7,    0.8,  999.0,    0.7,  999.0,    1.1,    0.6,   -0.3,    0.5,  999.0,    0.9,    1.4,    1.1,    1.1,    0.2,    0.5,    0.1,  999.0,  999.0,  999.0,    0.9,    0.2,    0.4,    0.7,    0.8,    0.9,    0.9,    0.5
2000/10/12 20:20,    0.7,    0.8,    0.8,  999.0,    0.4,    0.8,    0.6,  999.0,    1.5,  999.0,  999.0,    0.4,    0.2,    1.0,    0.5,    0.5,    0.7,    0.5,    0.2,    1.1,    0.8,    1.1,    0.9,    0.3,    0.8,    0.6,    1.2,    0.6,    0.5,    0.6,    1.2,    1.0,    1.1,    1.6,    0.8,    0.7,    0.8,    1.0,    1.3,    1.0,    1.1,    1.0,  999.0,    0.7,    0.4,    0.5,    1.1,    0.8,    0.4,    0.8,    1.5,    1.0,    0.9,    1.2,    1.0,    1.1,    0.9,   -0.3
2000/10/12 20:30,   -6.5,    0.5,  999.0,  999.0,    0.8,    0.9,   -0.1,    0.4,    0.5,  -21.1,    0.7,  -21.0,  -13.7,   -9.9,  -41.7,  999.0,    0.4,  -20.8,  -21.3,  999.0,  999.0,    0.5,    0.9,    1.2,    0.9,    0.6,  999.0,    0.6,  999.0,  -42.4,    0.7,  999.0,  -20.0,    0.5,    0.8,  -20.4,    0.7,    0.7,  999.0,    0.3,  -42.8,  -10.1,    0.6,    0.4,    0.5,  -21.1,  -21.0,    0.8,  999.0,  -21.1,    1.0,  -42.2,  -21.2,    1.6,    0.9,    0.4,    1.1,    0.8
2000/10/12 20:40,    0.7,    0.6,    0.5,    1.0,    0.9,    0.7,    1.2,    0.8,    0.6,    0.5,  999.0,    0.6,    0.5,    0.7,   -0.2,    0.4,    0.5,    0.7,    0.2,    0.6,    0.6,    0.5,  999.0,    0.7,    0.5,    0.9,    0.5,    0.8,    0.8,    0.6,   -0.4,    0.6,    0.4,    1.0,    0.8,    0.7,    0.6,    0.1,    0.6,  999.0,    0.9,    0.0,    0.3,    0.8,    1.2,    1.2,    1.2,    0.9,    1.0,    0.6,    0.3,    0.9,    1.0,    0.5,    0.9,    1.1,    0.8,    0.7
2000/10/12 20:50,    0.7,  999.0,    1.1,    0.5,    0.8,    0.3,    0.2,    0.9,    1.0,    1.3,    0.5,    0.3,    0.8,    0.7,    0.9,    1.3,    0.7,    0.7,    0.8,    0.5,    0.7,    0.2,    0.6,    0.8,    1.0,    1.2,    0.7,    0.7,    0.9,    1.0,    0.3,    1.2,    0.8,    0.8,    1.6,    0.9,    0.4,    0.3,  999.0,    0.9,    0.7,    0.3,    0.4,    0.6,  999.0,    0.6,    0.7,    0.6,    0.9,    1.0,    0.6,    0.1,    0.5,    0.5,    0.6,    0.9,    0.9,    0.5
2000/10/12 21:00,   10.9,    1.1,  999.0,    0.9,  999.0,    0.8,  999.0,   -5.4,    0.7,    0.6,    6.2,  999.0,    1.3,    2.5,  999.0,    0.6,   28.2,   18.0,   18.7,   16.1,  999.0,    6.7,    0.5,    0.5,    0.2,   21.2,   21.1,   41.4,   21.2,   41.2,   30.6,   20.4,   21.0,    0.9,   15.3,  999.0,  999.0,    1.5,    0.7,    1.0,   -6.4,  999.0,   -0.1,   -0.8,    1.0,  -17.2,  -10.1,  -14.3,   -7.7,  -26.3,  -12.0,  -20.0,    0.1,  -20.5,  999.0,  -20.6,  -13.5,    0.8
2000/10/12 21:10,   -6.4,    0.5,    0.6,    0.3,    1.4,  -13.4,   -0.0,    1.2,    0.2,    0.8,  -13.6,    0.8,   -9.8,    0.8,  999.0,   -6.0,    0.7,    0.7,  -13.9,  999.0,    1.0,    1.1,    0.9,    1.0,    0.1,    0.0,    0.1,    0.5,  -20.9,   -9.9,  999.0,  999.0,  -41.8,  999.0,  999.0,  999.0,  999.0,  -26.1,  999.0,  999.0,  -42.1,  -42.3,  -42.2,  -42.0,  -41.9,  -42.0,  -41.9,  -42.5,  -40.9,  -42.0,  -41.9,  -41.8,  -41.8,  -42.1,  -42.3,  -41.2,  -41.7,  -41.9
2000/10/12 21:20,    0.8,    0.7,    1.0,    0.5,    0.6,    0.4,    0.7,    0.9,  999.0,    0.6,  999.0,    0.5,    0.5,  999.0,    0.5,    0.4,    0.7,    0.6,    1.1,    1.1,    0.6,    1.3,    0.3,    1.5,  999.0,    0.5,    0.1,    0.3,    0.6,    0.2,  999.0,  999.0,  999.0,  999.0,  999.0,  999.0,  999.0,  999.0,  999.0,  999.0,  999.0,  999.0,  -40.9,  999.0,  -41.3,  -41.3,  -41.8,  -41.6,  -41.9,  -41.4,  -42.9,  -41.7,  -41.5,  -41.5,  -41.5,  -42.4,  -41.4,  -41.1
2000/10/12 21:30,    0.7,    1.5,    0.5,    0.6,    0.1,   -0.1,    0.7,    1.7,    0.5,    1.1,    0.7,    1.8,    1.2,  999.0,    0.1,    1.2,    0.6,    0.9,    1.5,    0.4,    0.4,    0.5,  999.0,    0.2,    0.6,    0.5,    0.5,    1.1,    1.1,  999.0,    0.8,  999.0,  999.0,  999.0,  999.0,  999.0,  999.0,  999.0,  999.0,  999.0,  999.0,  999.0,  999.0,  999.0,  999.0,  -41.9,  999.0,  999.0,  999.0,  -41.9,  -42.0,  -42.2,  -41.6,  -41.1,  -41.6,  -41.5,  -40.7,  -41.2
2000/10/12 21:40,   -6.4,    0.5,   -6.3,  -20.5,   -6.6,  -13.4,   -6.6,  -21.1,    0.4,   -6.5,  -13.7,    0.8,    0.6,    0.6,    0.6,   -0.1,  -21.2,    0.8,  -10.0,    0.3,  -10.4,    0.8,  -42.5,  999.0,  999.0,  999.0,  -41.8,  999.0,  999.0,  999.0,  -42.6,  999.0,  -42.2,  999.0,  -42.8,  999.0,  999.0,  999.0,  999.0,  999.0,  999.0,  999.0,  999.0,  999.0,  999.0,  -42.1,  -42.6,  999.0,  -41.9,  -42.0,  -41.5,  -42.3,  -42.0,  -42.1,  -41.8,  -42.1,  -42.1,  -42.3
2000/10/12 21:50,    7.4,    1.5,    2.0,   21.7,    0.6,   42.3,    7.5,   21.6,    0.0,   -0.4,    0.4,   -0.2,  999.0,    1.1,    0.5,  999.0,   21.4,    0.1,    1.3,    0.8,  999.0,   -1.0,   -0.1,  999.0,   -1.2,   -1.4,   -1.0,  999.0,   -1.4,  999.0,   -1.0,   -0.3,   -0.0,  999.0,   -0.6,  -23.2,  999.0,   -0.3,   -0.7,  999.0,  999.0,  999.0,  999.0,   -1.0,  -18.6,  999.0,   -0.9,  -41.4,   -1.0,  -41.1,  -41.9,  -42.8,  -21.2,  -27.9,  -41.6,  -41.5,  -21.4,  -28.1
2000/10/12 22:00,   14.4,   42.1,    0.6,    0.9,    0.5,    0.9,   14.6,  999.0,    1.2,    0.6,    0.6,   20.7,   21.6,    1.0,   21.5,    0.7,    0.4,   41.9,    0.8,  999.0,    6.4,  999.0,  999.0,   21.7,   26.5,   24.7,    0.3,   41.4,   21.7,   41.6,   21.1,   41.7,   42.1,   42.2,   42.0,    0.6,   42.1,  999.0,   42.0,   42.6,   21.0,  999.0,  999.0,   41.8,   21.5,   27.9,  999.0,   40.8,   41.7,  999.0,   27.7,   41.6,   21.0,   41.7,   27.3,   41.8,   41.5,    0.8
2000/10/12 22:10,    0.7,    0.6,  999.0,    0.5,    0.3,    0.9,    0.8,    1.0,    0.2,    0.7,    0.5,    0.8,    0.4,   -0.0,    1.2,    1.1,    1.1,    4.0,  999.0,   11.1,   11.8,   11.1,   18.5,   19.6,  999.0,   24.7,   28.0,   28.4,  999.0,   37.8,   37.1,   41.3,   41.2,   41.7,   42.2,   41.8,   42.8,   41.8,   41.7,  999.0,   42.2,   42.0,   42.0,   42.0,   42.6,   42.2,   42.6,   42.5,   42.1,   42.4,   41.9,   42.1,   41.8,   42.4,   41.7,   41.6,   41.5,   42.0
2000/10/12 22:20,    0.8,   -0.2,    0.4,    1.0,    1.0,    0.9,    0.5,    0.3,  999.0,    0.5,    0.2,    0.9,    0.4,    1.0,    0.7,    4.4,    3.7,    5.2,    6.7,   12.0,  999.0,   16.0,   19.0,   17.0,   20.9,   24.4,   25.7,   29.2,   31.1,   33.5,  999.0,   37.8,  999.0,   41.6,   41.5,   41.4,  999.0,   41.0,   41.9,   41.6,   42.3,   42.6,   43.0,   42.0,   42.0,   41.4,   41.8,   42.1,  999.0,   41.8,   42.2,   41.7,   41.7,   41.5,   42.1,   42.1,   41.9,   42.2
2000/10/12 22:30,    0.7,    0.5,    0.5,    0.7,    0.7,    0.7,    1.1,    1.0,    0.3,    0.3,    1.1,    1.1,    0.7,    0.6,    0.3,    0.7,    0.9,  999.0,    3.1,    5.8,   10.2,   10.5,   12.5,   15.5,   18.0,   18.8,   23.2,   24.4,   27.1,   28.9,   33.2,   33.0,   37.0,   39.0,   39.9,   40.5,   41.7,   41.8,   41.7,   41.4,   41.9,   42.2,   41.4,   41.9,   41.9,   41.6,   41.4,   41.6,   41.3,   41.1,   41.9,   41.5,  999.0,   41.4,   42.0,   41.8,   41.3,   41.5
2000/10/12 22:40,    0.7,    0.4,    0.8,  999.0,    0.8,  999.0,    0.5,    0.0,    1.4,    1.2,    1.5,    1.0,  999.0,  999.0,    1.2,    0.7,  999.0,    1.6,    4.2,  999.0,    8.3,  999.0,  999.0,  999.0,   16.7,   18.8,   20.1,  999.0,  999.0,  999.0,   28.5,   31.0,   33.3,  999.0,   37.0,   39.0,  999.0,  999.0,   42.3,   41.1,  999.0,  999.0,   42.2,  999.0,   42.0,  999.0,   41.5,   42.2,   41.5,  999.0,   42.2,  999.0,   42.2,  999.0,   41.7,  999.0,   41.6,  999.0
2000/10/12 22:50,  -35.7,  999.0,  -42.2,  -41.7,  -41.7,  -42.1,  -41.9,  999.0,  -42.0,  999.0,  -42.0,  -41.6,  -41.2,  999.0,  -36.1,  -42.2,  -42.2,  -41.8,  -41.8,  -42.0,  -41.6,  -41.6,  -41.8,  999.0,  999.0,  -41.2,  -43.0,  -42.0,  -41.6,  -42.5,  -42.0,  999.0,  -42.0,  -41.7,  999.0,  999.0,  -42.6,  999.0,  -42.3,  999.0,  -42.2,  -42.6,  999.0,  -43.0,  999.0,  -42.3,  -41.6,  999.0,  999.0,  999.0,  -42.1,  -42.7,  999.0,  999.0,  -41.3,  -42.6,  -41.6,  -41.8
2000/10/12 23:00,  -41.9,  -41.7,  -42.1,  -41.3,  -41.4,  -41.8,  -42.0,  -42.2,  -42.2,  999.0,  -42.1,  -42.2,  -42.3,  -41.6,  -41.8,  -42.2,  -42.5,  999.0,  999.0,  999.0,  -42.3,  -42.1,  -41.7,  -42.4,  999.0,  -42.0,  999.0,  -42.6,  -41.1,  -41.7,  -42.2,  -41.6,  -42.2,  999.0,  999.0,  -42.0,  -41.8,  -41.7,  -41.8,  -41.9,  -42.4,  -42.4,  -41.7,  -42.0,  -42.4,  -42.0,  -41.8,  -41.6,  -41.8,  -41.4,  -42.4,  -41.6,  -41.8,  999.0,  999.0,  -42.5,  -42.8,  -41.6
2000/10/12 23:10,  -31.6,  -39.7,  -42.0,  -42.3,  -42.0,  -42.0,  -42.6,  -41.5,  -41.8,  -41.2,  -41.6,  -41.5,  -41.6,    0.5,    0.9,  -42.2,  999.0,   -6.8,  999.0,  -21.7,   -4.9,  999.0,  -37.2,  999.0,  999.0,  -41.7,  -31.4,  -41.6,  -21.1,  999.0,  -21.2,  999.0,  -25.0,  -41.9,   -0.2,   -0.7,    0.3,    0.2,  999.0,    0.5,  -21.2,  -10.5,  -15.6,  999.0,  -33.5,  999.0,   -0.2,    0.7,   -6.3,  999.0,    0.9,    0.9,  999.0,    0.6,  -19.2,  999.0,   -0.2,   -6.4
2000/10/12 23:20,  -41.8,  999.0,  -41.4,  -42.2,  -43.0,  999.0,  999.0,  999.0,  999.0,  999.0,  999.0,  999.0,  999.0,  999.0,  999.0,  999.0,  999.0,  999.0,  999.0,  999.0,  999.0,  999.0,  999.0,  999.0,  999.0,  999.0,  999.0,  999.0,  999.0,  999.0,  999.0,  999.0,  999.0,  999.0,  999.0,  999.0,  999.0,  999.0,  999.0,  999.0,  999.0,  999.0,  999.0,  999.0,  999.0,  999.0,  999.0,  999.0,  999.0,  999.0,  999.0,    0.6,  999.0,   -0.6,   -0.5,  999.0,  999.0,   -0.4
2000/10/12 23:30,  -21.5,  999.0,  -42.2,  999.0,  999.0,  -42.2,  999.0,  -21.0,   -0.4,  -42.4,  -21.1,  -42.2,  999.0,  -16.0,  -42.2,  999.0,   -0.6,   -0.1,  999.0,  -21.1,   -0.8,  999.0,  -42.3,  999.0,  -42.0,  999.0,   -0.2,   -1.1,  999.0,   -1.0,  999.0,  -21.6,  -22.3,  999.0,   -0.8,  999.0,  -21.8,   -1.1,  999.0,  999.0,  999.0,   -0.4,   -0.8,   -0.1,  -42.1,   -1.8,  999.0,   -0.2,   -0.5,   -0.6,   -1.0,  999.0,  999.0,  999.0,   -0.4,    0.5,   -0.7,  999.0
2000/10/12 23:40,  -41.8,  -41.8,  -42.3,  -41.6,  -41.9,  -41.9,  -41.1,  -41.8,  -41.5,  999.0,  -41.8,  -41.6,  -41.0,  -41.9,  -41.8,  -41.6,  -41.4,  -42.0,  -41.8,  -41.8,  -42.0,  -41.7,  -41.6,  -42.3,  -42.3,  -41.7,  -41.6,  999.0,  -41.9,  -42.4,  999.0,  -41.7,  -41.4,  -41.9,  -41.5,  -42.0,  -42.1,  -41.9,  -41.8,  -41.5,  -42.1,  -41.4,  -42.2,  -41.8,  -41.5,  999.0,  999.0,  -41.3,  -41.1,  -41.6,  -41.1,  999.0,  -42.1,  -41.6,  -41.9,  -42.2,  -42.0,  -41.4
2000/10/12 23:50,  -41.8,  -41.8,  -41.7,  -41.8,  -42.3,  -41.8,  -40.6,  -41.3,  -42.1,  -41.5,  -41.6,  -41.7,  -41.6,  -42.2,  -42.7,  -41.9,  -42.0,  -41.3,  -42.2,  999.0,  -42.0,  -41.9,  -41.9,  -41.8,  -42.4,  -41.3,  -42.4,  -41.8,  -42.2,  -41.5,  -42.4,  -41.7,  -40.9,  -41.5,  -42.2,  -41.3,  -40.9,  -41.6,  -41.8,  -42.3,  -41.8,  -41.9,  -41.3,  -42.0,  -41.8,  -41.7,  -41.4,  -41.7,  -41.7,  -41.5,  -41.9,  -42.0,  -42.2,  -41.8,  -42.0,  -41.6,  -42.0,  -41.7
